Wetterdaten: Mittwoch, 28.06.2017
Datum Zeit Temp. Aussen Temp. o. S. +5cm Feuchte Auss BlattFeu 1 Luftdruck Regen Sonnenschein Regendauer Solar Windben Empfang
28.06.2017 00:00 19,3 C 18,9 C 17,2 C 88 % 1 lf 1000,9 hPa 0,0 l/m 0 min 0 min 0 W/m 8,4 km/h (2 Bft) 97,83 %
28.06.2017 00:02 19,3 C 18,9 C 17,2 C 88 % 1 lf 1000,9 hPa 0,0 l/m 0 min 0 min 0 W/m 6,3 km/h (2 Bft) 95,24 %
28.06.2017 00:04 19,3 C 18,9 C 17,2 C 88 % 1 lf 1001,0 hPa 0,0 l/m 0 min 0 min 0 W/m 10,5 km/h (2 Bft) 98,00 %
28.06.2017 00:06 19,3 C 18,9 C 17,2 C 88 % 1 lf 1000,9 hPa 0,0 l/m 0 min 0 min 0 W/m 6,3 km/h (2 Bft) 97,37 %
28.06.2017 00:10 19,3 C 18,9 C 17,2 C 88 % 1 lf 1000,9 hPa 0,0 l/m 0 min 0 min 0 W/m 10,5 km/h (2 Bft) 95,79 %
28.06.2017 00:12 19,3 C 18,9 C 17,2 C 88 % 1 lf 1001,0 hPa 0,0 l/m 0 min 0 min 0 W/m 6,3 km/h (2 Bft) 95,83 %
28.06.2017 00:14 19,3 C 18,9 C 17,2 C 88 % 1 lf 1000,9 hPa 0,0 l/m 0 min 0 min 0 W/m 4,2 km/h (1 Bft) 97,87 %
28.06.2017 00:16 19,3 C 18,9 C 17,8 C 89 % 1 lf 1000,9 hPa 0,0 l/m 0 min 0 min 0 W/m 6,3 km/h (2 Bft) 97,87 %
28.06.2017 00:18 19,2 C 18,9 C 17,8 C 89 % 1 lf 1000,8 hPa 0,0 l/m 0 min 0 min 0 W/m 6,3 km/h (2 Bft) 93,62 %
28.06.2017 00:20 19,2 C 18,9 C 17,2 C 89 % 1 lf 1000,8 hPa 0,0 l/m 0 min 0 min 0 W/m 10,5 km/h (2 Bft) 95,74 %
28.06.2017 00:22 19,2 C 18,9 C 17,2 C 89 % 1 lf 1000,7 hPa 0,0 l/m 0 min 0 min 0 W/m 6,3 km/h (2 Bft) 97,62 %
28.06.2017 00:24 19,2 C 18,9 C 17,2 C 89 % 1 lf 1000,7 hPa 0,0 l/m 0 min 0 min 0 W/m 10,5 km/h (2 Bft) 97,87 %
28.06.2017 00:26 19,2 C 18,9 C 17,2 C 89 % 1 lf 1000,6 hPa 0,0 l/m 0 min 0 min 0 W/m 8,4 km/h (2 Bft) 96,49 %
28.06.2017 00:28 19,2 C 18,9 C 17,2 C 89 % 1 lf 1000,6 hPa 0,0 l/m 0 min 0 min 0 W/m 10,5 km/h (2 Bft) 97,37 %
28.06.2017 00:30 19,2 C 18,9 C 17,2 C 89 % 1 lf 1000,6 hPa 0,0 l/m 0 min 0 min 0 W/m 14,6 km/h (3 Bft) 96,00 %
28.06.2017 00:32 19,2 C 18,9 C 17,2 C 89 % 1 lf 1000,6 hPa 0,0 l/m 0 min 0 min 0 W/m 14,6 km/h (3 Bft) 97,87 %
28.06.2017 00:34 19,2 C 18,9 C 17,2 C 89 % 1 lf 1000,6 hPa 0,0 l/m 0 min 0 min 0 W/m 10,5 km/h (2 Bft) 95,65 %
28.06.2017 00:36 19,2 C 18,9 C 17,2 C 89 % 1 lf 1000,6 hPa 0,0 l/m 0 min 0 min 0 W/m 12,6 km/h (3 Bft) 97,87 %
28.06.2017 00:38 19,2 C 18,9 C 17,8 C 89 % 1 lf 1000,5 hPa 0,0 l/m 0 min 0 min 0 W/m 12,6 km/h (3 Bft) 93,62 %
28.06.2017 00:40 19,2 C 18,9 C 17,8 C 89 % 1 lf 1000,5 hPa 0,0 l/m 0 min 0 min 0 W/m 10,5 km/h (2 Bft) 95,74 %
28.06.2017 00:42 19,2 C 18,9 C 17,8 C 89 % 1 lf 1000,5 hPa 0,0 l/m 0 min 0 min 0 W/m 10,5 km/h (2 Bft) 98,11 %
28.06.2017 00:44 19,2 C 18,9 C 17,8 C 89 % 1 lf 1000,6 hPa 0,0 l/m 0 min 0 min 0 W/m 6,3 km/h (2 Bft) 97,37 %
28.06.2017 00:46 19,2 C 18,9 C 17,8 C 89 % 1 lf 1000,6 hPa 0,0 l/m 0 min 0 min 0 W/m 6,3 km/h (2 Bft) 97,96 %
28.06.2017 00:48 19,2 C 18,9 C 17,8 C 90 % 1 lf 1000,6 hPa 0,0 l/m 0 min 0 min 0 W/m 10,5 km/h (2 Bft) 97,87 %
28.06.2017 00:50 19,2 C 18,9 C 17,8 C 90 % 1 lf 1000,5 hPa 0,0 l/m 0 min 0 min 0 W/m 10,5 km/h (2 Bft) 96,23 %
28.06.2017 00:52 19,2 C 18,9 C 17,8 C 90 % 1 lf 1000,3 hPa 0,0 l/m 0 min 0 min 0 W/m 10,5 km/h (2 Bft) 97,87 %
28.06.2017 00:54 19,2 C 18,9 C 17,8 C 90 % 1 lf 1000,3 hPa 0,0 l/m 0 min 0 min 0 W/m 14,6 km/h (3 Bft) 100,00 %
28.06.2017 00:56 19,2 C 18,9 C 17,8 C 90 % 1 lf 1000,4 hPa 0,0 l/m 0 min 0 min 0 W/m 14,6 km/h (3 Bft) 100,00 %
28.06.2017 00:58 19,2 C 18,9 C 17,8 C 90 % 1 lf 1000,3 hPa 0,0 l/m 0 min 0 min 0 W/m 6,3 km/h (2 Bft) 100,00 %
28.06.2017 01:00 19,2 C 18,9 C 17,8 C 90 % 1 lf 1000,4 hPa 0,0 l/m 0 min 0 min 0 W/m 12,6 km/h (3 Bft) 97,96 %
28.06.2017 01:02 19,2 C 18,9 C 17,8 C 90 % 1 lf 1000,3 hPa 0,0 l/m 0 min 0 min 0 W/m 10,5 km/h (2 Bft) 100,00 %
28.06.2017 01:04 19,2 C 18,9 C 17,8 C 90 % 1 lf 1000,3 hPa 0,0 l/m 0 min 0 min 0 W/m 10,5 km/h (2 Bft) 100,00 %
28.06.2017 01:06 19,2 C 18,9 C 17,8 C 90 % 1 lf 1000,2 hPa 0,0 l/m 0 min 0 min 0 W/m 14,6 km/h (3 Bft) 95,92 %
28.06.2017 01:08 19,2 C 18,9 C 17,8 C 90 % 1 lf 1000,2 hPa 0,0 l/m 0 min 0 min 0 W/m 10,5 km/h (2 Bft) 100,00 %
28.06.2017 01:10 19,1 C 18,9 C 17,8 C 90 % 1 lf 1000,1 hPa 0,0 l/m 0 min 0 min 0 W/m 10,5 km/h (2 Bft) 100,00 %
28.06.2017 01:12 19,2 C 18,9 C 17,8 C 90 % 1 lf 1000,1 hPa 0,0 l/m 0 min 0 min 0 W/m 12,6 km/h (3 Bft) 97,83 %
28.06.2017 01:14 19,1 C 18,9 C 17,8 C 90 % 1 lf 1000,1 hPa 0,0 l/m 0 min 0 min 0 W/m 14,6 km/h (3 Bft) 100,00 %
28.06.2017 01:16 19,1 C 18,9 C 17,8 C 90 % 1 lf 1000,0 hPa 0,0 l/m 0 min 0 min 0 W/m 14,6 km/h (3 Bft) 100,00 %
28.06.2017 01:18 19,1 C 18,9 C 17,8 C 90 % 1 lf 1000,1 hPa 0,0 l/m 0 min 0 min 0 W/m 6,3 km/h (2 Bft) 100,00 %
28.06.2017 01:20 19,1 C 18,9 C 17,8 C 90 % 1 lf 1000,0 hPa 0,0 l/m 0 min 0 min 0 W/m 10,5 km/h (2 Bft) 96,55 %
28.06.2017 01:22 19,1 C 18,9 C 17,8 C 90 % 1 lf 1000,0 hPa 0,0 l/m 0 min 0 min 0 W/m 10,5 km/h (2 Bft) 100,00 %
28.06.2017 01:24 19,1 C 18,9 C 17,8 C 90 % 1 lf 1000,0 hPa 0,0 l/m 0 min 0 min 0 W/m 10,5 km/h (2 Bft) 91,49 %
28.06.2017 01:26 19,1 C 18,9 C 17,8 C 90 % 1 lf 1000,0 hPa 0,0 l/m 0 min 0 min 0 W/m 14,6 km/h (3 Bft) 97,87 %
28.06.2017 01:28 19,1 C 18,9 C 17,8 C 90 % 1 lf 999,9 hPa 0,0 l/m 0 min 0 min 0 W/m 10,5 km/h (2 Bft) 94,44 %
28.06.2017 01:30 19,1 C 18,9 C 17,8 C 90 % 1 lf 999,9 hPa 0,0 l/m 0 min 0 min 0 W/m 10,5 km/h (2 Bft) 97,87 %
28.06.2017 01:32 19,1 C 18,9 C 17,8 C 91 % 1 lf 999,8 hPa 0,0 l/m 0 min 0 min 0 W/m 14,6 km/h (3 Bft) 93,62 %
28.06.2017 01:34 19,1 C 18,9 C 17,8 C 91 % 1 lf 999,8 hPa 0,0 l/m 0 min 0 min 0 W/m 12,6 km/h (3 Bft) 96,36 %
28.06.2017 01:36 19,1 C 18,9 C 17,8 C 91 % 1 lf 999,7 hPa 0,0 l/m 0 min 0 min 0 W/m 10,5 km/h (2 Bft) 95,65 %
28.06.2017 01:38 19,1 C 18,9 C 17,8 C 90 % 1 lf 999,7 hPa 0,0 l/m 0 min 0 min 0 W/m 10,5 km/h (2 Bft) 95,74 %
28.06.2017 01:40 19,1 C 18,9 C 17,8 C 91 % 1 lf 999,6 hPa 0,0 l/m 0 min 0 min 0 W/m 12,6 km/h (3 Bft) 97,87 %
28.06.2017 01:42 19,1 C 18,9 C 17,8 C 91 % 1 lf 999,6 hPa 0,0 l/m 0 min 0 min 0 W/m 16,7 km/h (3 Bft) 91,49 %
28.06.2017 01:44 19,1 C 18,9 C 17,2 C 91 % 1 lf 999,6 hPa 0,0 l/m 0 min 0 min 0 W/m 14,6 km/h (3 Bft) 96,00 %
28.06.2017 01:46 19,1 C 18,9 C 17,2 C 91 % 1 lf 999,5 hPa 0,0 l/m 0 min 0 min 0 W/m 16,7 km/h (3 Bft) 93,48 %
28.06.2017 01:48 19,1 C 18,9 C 17,2 C 91 % 1 lf 999,5 hPa 0,0 l/m 0 min 0 min 0 W/m 10,5 km/h (2 Bft) 93,62 %
28.06.2017 01:50 19,1 C 18,9 C 17,2 C 91 % 1 lf 999,5 hPa 0,0 l/m 0 min 0 min 0 W/m 14,6 km/h (3 Bft) 93,62 %
28.06.2017 01:52 19,1 C 18,9 C 17,2 C 91 % 1 lf 999,4 hPa 0,0 l/m 0 min 0 min 0 W/m 10,5 km/h (2 Bft) 93,62 %
28.06.2017 01:54 19,1 C 18,9 C 17,2 C 91 % 1 lf 999,4 hPa 0,0 l/m 0 min 0 min 0 W/m 12,6 km/h (3 Bft) 95,74 %
28.06.2017 01:56 19,1 C 18,9 C 17,2 C 91 % 1 lf 999,3 hPa 0,0 l/m 0 min 0 min 0 W/m 16,7 km/h (3 Bft) 97,14 %
28.06.2017 01:58 19,1 C 18,9 C 17,2 C 91 % 1 lf 999,2 hPa 0,0 l/m 0 min 0 min 0 W/m 16,7 km/h (3 Bft) 95,74 %
28.06.2017 02:00 19,1 C 18,9 C 17,2 C 91 % 1 lf 999,2 hPa 0,0 l/m 0 min 0 min 0 W/m 12,6 km/h (3 Bft) 92,00 %
28.06.2017 02:02 19,1 C 18,9 C 17,2 C 91 % 1 lf 999,1 hPa 0,0 l/m 0 min 0 min 0 W/m 12,6 km/h (3 Bft) 96,00 %
28.06.2017 02:04 19,1 C 18,9 C 17,2 C 91 % 1 lf 999,0 hPa 0,0 l/m 0 min 0 min 0 W/m 8,4 km/h (2 Bft) 93,62 %
28.06.2017 02:06 19,1 C 18,3 C 17,2 C 91 % 1 lf 998,9 hPa 0,0 l/m 0 min 0 min 0 W/m 10,5 km/h (2 Bft) 95,74 %
28.06.2017 02:08 19,0 C 18,3 C 17,2 C 91 % 1 lf 998,8 hPa 0,0 l/m 0 min 0 min 0 W/m 10,5 km/h (2 Bft) 97,67 %
28.06.2017 02:10 19,0 C 18,3 C 17,2 C 91 % 1 lf 998,8 hPa 0,0 l/m 0 min 0 min 0 W/m 14,6 km/h (3 Bft) 95,92 %
28.06.2017 02:12 19,0 C 18,3 C 17,2 C 91 % 1 lf 998,8 hPa 0,0 l/m 0 min 0 min 0 W/m 10,5 km/h (2 Bft) 95,83 %
28.06.2017 02:14 19,0 C 18,9 C 17,2 C 91 % 1 lf 998,7 hPa 0,0 l/m 0 min 0 min 0 W/m 12,6 km/h (3 Bft) 97,87 %
28.06.2017 02:16 19,0 C 18,3 C 17,2 C 91 % 1 lf 998,7 hPa 0,0 l/m 0 min 0 min 0 W/m 6,3 km/h (2 Bft) 95,35 %
28.06.2017 02:18 19,0 C 18,3 C 17,2 C 91 % 1 lf 998,7 hPa 0,0 l/m 0 min 0 min 0 W/m 10,5 km/h (2 Bft) 96,00 %
28.06.2017 02:20 19,0 C 18,3 C 17,2 C 91 % 1 lf 998,7 hPa 0,0 l/m 0 min 0 min 0 W/m 6,3 km/h (2 Bft) 91,49 %
28.06.2017 02:22 19,0 C 18,3 C 17,2 C 91 % 1 lf 998,6 hPa 0,0 l/m 0 min 0 min 0 W/m 8,4 km/h (2 Bft) 93,62 %
28.06.2017 02:24 19,0 C 18,3 C 17,2 C 91 % 1 lf 998,6 hPa 0,0 l/m 0 min 0 min 0 W/m 14,6 km/h (3 Bft) 93,62 %
28.06.2017 02:26 18,9 C 18,3 C 17,2 C 91 % 1 lf 998,5 hPa 0,0 l/m 0 min 0 min 0 W/m 12,6 km/h (3 Bft) 95,35 %
28.06.2017 02:28 18,9 C 18,3 C 17,2 C 92 % 1 lf 998,5 hPa 0,0 l/m 0 min 0 min 0 W/m 10,5 km/h (2 Bft) 98,00 %
28.06.2017 02:30 18,9 C 18,9 C 17,2 C 92 % 1 lf 998,5 hPa 0,0 l/m 0 min 0 min 0 W/m 12,6 km/h (3 Bft) 97,87 %
28.06.2017 02:32 18,9 C 18,9 C 17,2 C 92 % 1 lf 998,4 hPa 0,0 l/m 0 min 0 min 0 W/m 16,7 km/h (3 Bft) 95,74 %
28.06.2017 02:34 18,9 C 18,9 C 17,2 C 92 % 1 lf 998,4 hPa 0,0 l/m 0 min 0 min 0 W/m 10,5 km/h (2 Bft) 97,87 %
28.06.2017 02:36 18,9 C 18,9 C 17,2 C 92 % 1 lf 998,5 hPa 0,0 l/m 0 min 0 min 0 W/m 10,5 km/h (2 Bft) 95,35 %
28.06.2017 02:38 18,9 C 18,9 C 17,2 C 92 % 1 lf 998,5 hPa 0,0 l/m 0 min 0 min 0 W/m 6,3 km/h (2 Bft) 98,00 %
28.06.2017 02:40 18,9 C 18,3 C 17,2 C 92 % 1 lf 998,5 hPa 0,0 l/m 0 min 0 min 0 W/m 6,3 km/h (2 Bft) 95,83 %
28.06.2017 02:42 18,9 C 18,3 C 17,2 C 92 % 1 lf 998,5 hPa 0,0 l/m 0 min 0 min 0 W/m 8,4 km/h (2 Bft) 97,83 %
28.06.2017 02:44 18,9 C 18,3 C 17,2 C 92 % 1 lf 998,4 hPa 0,0 l/m 0 min 0 min 0 W/m 8,4 km/h (2 Bft) 97,87 %
28.06.2017 02:46 18,9 C 18,3 C 17,2 C 92 % 1 lf 998,2 hPa 0,0 l/m 0 min 0 min 0 W/m 6,3 km/h (2 Bft) 97,73 %
28.06.2017 02:48 18,9 C 18,9 C 17,2 C 92 % 1 lf 998,2 hPa 0,0 l/m 0 min 0 min 0 W/m 4,2 km/h (1 Bft) 97,96 %
28.06.2017 02:50 18,9 C 18,9 C 17,2 C 92 % 1 lf 998,4 hPa 0,0 l/m 0 min 0 min 0 W/m 8,4 km/h (2 Bft) 97,92 %
28.06.2017 02:52 18,9 C 18,9 C 17,2 C 92 % 1 lf 998,4 hPa 0,0 l/m 0 min 0 min 0 W/m 8,4 km/h (2 Bft) 95,74 %
28.06.2017 02:54 18,9 C 18,9 C 17,2 C 92 % 1 lf 998,2 hPa 0,0 l/m 0 min 0 min 0 W/m 8,4 km/h (2 Bft) 97,83 %
28.06.2017 02:56 18,9 C 18,9 C 17,2 C 92 % 1 lf 998,2 hPa 0,0 l/m 0 min 0 min 0 W/m 10,5 km/h (2 Bft) 97,73 %
28.06.2017 02:58 18,9 C 18,9 C 17,2 C 92 % 1 lf 998,4 hPa 0,0 l/m 0 min 0 min 0 W/m 8,4 km/h (2 Bft) 97,96 %
28.06.2017 03:00 18,9 C 18,9 C 17,2 C 92 % 1 lf 998,3 hPa 0,0 l/m 0 min 0 min 0 W/m 10,5 km/h (2 Bft) 94,00 %
28.06.2017 03:02 18,9 C 18,9 C 17,2 C 92 % 1 lf 998,1 hPa 0,0 l/m 0 min 0 min 0 W/m 8,4 km/h (2 Bft) 93,62 %
28.06.2017 03:04 18,9 C 18,9 C 17,2 C 92 % 1 lf 998,0 hPa 0,0 l/m 0 min 0 min 0 W/m 8,4 km/h (2 Bft) 94,00 %
28.06.2017 03:06 18,9 C 18,9 C 17,2 C 92 % 1 lf 998,1 hPa 0,0 l/m 0 min 0 min 0 W/m 8,4 km/h (2 Bft) 100,00 %
28.06.2017 03:08 18,9 C 18,9 C 17,2 C 92 % 1 lf 998,0 hPa 0,0 l/m 0 min 0 min 0 W/m 8,4 km/h (2 Bft) 95,65 %
28.06.2017 03:10 18,9 C 18,9 C 17,2 C 92 % 1 lf 998,1 hPa 0,0 l/m 0 min 0 min 0 W/m 14,6 km/h (3 Bft) 95,74 %
28.06.2017 03:12 18,9 C 18,9 C 17,2 C 93 % 1 lf 998,0 hPa 0,0 l/m 0 min 0 min 0 W/m 8,4 km/h (2 Bft) 97,87 %
28.06.2017 03:14 18,9 C 18,9 C 17,2 C 93 % 1 lf 998,0 hPa 0,0 l/m 0 min 0 min 5 W/m 10,5 km/h (2 Bft) 98,18 %
28.06.2017 03:16 18,9 C 18,9 C 17,8 C 93 % 1 lf 998,0 hPa 0,0 l/m 0 min 0 min 5 W/m 6,3 km/h (2 Bft) 94,00 %
28.06.2017 03:18 18,9 C 18,9 C 17,8 C 93 % 1 lf 997,9 hPa 0,0 l/m 0 min 0 min 5 W/m 16,7 km/h (3 Bft) 97,22 %
28.06.2017 03:20 18,9 C 18,9 C 17,8 C 93 % 1 lf 997,8 hPa 0,0 l/m 0 min 0 min 5 W/m 10,5 km/h (2 Bft) 97,83 %
28.06.2017 03:22 18,9 C 18,9 C 17,8 C 93 % 1 lf 997,8 hPa 0,0 l/m 0 min 0 min 5 W/m 10,5 km/h (2 Bft) 97,87 %
28.06.2017 03:24 18,9 C 18,9 C 17,8 C 93 % 1 lf 997,8 hPa 0,0 l/m 0 min 0 min 5 W/m 10,5 km/h (2 Bft) 96,36 %
28.06.2017 03:26 18,9 C 18,9 C 17,8 C 93 % 1 lf 997,8 hPa 0,0 l/m 0 min 0 min 5 W/m 10,5 km/h (2 Bft) 98,00 %
28.06.2017 03:28 18,9 C 18,9 C 17,8 C 93 % 1 lf 997,8 hPa 0,0 l/m 0 min 0 min 5 W/m 12,6 km/h (3 Bft) 97,22 %
28.06.2017 03:30 19,0 C 19,4 C 17,8 C 93 % 1 lf 997,7 hPa 0,0 l/m 0 min 0 min 5 W/m 8,4 km/h (2 Bft) 97,83 %
28.06.2017 03:32 19,0 C 19,4 C 17,8 C 93 % 1 lf 997,7 hPa 0,0 l/m 0 min 0 min 5 W/m 12,6 km/h (3 Bft) 98,18 %
28.06.2017 03:34 19,0 C 19,4 C 17,8 C 93 % 1 lf 997,6 hPa 0,0 l/m 0 min 0 min 5 W/m 14,6 km/h (3 Bft) 98,00 %
28.06.2017 03:36 19,0 C 19,4 C 17,8 C 93 % 1 lf 997,7 hPa 0,0 l/m 0 min 0 min 5 W/m 12,6 km/h (3 Bft) 97,22 %
28.06.2017 03:38 19,1 C 19,4 C 17,8 C 93 % 1 lf 997,6 hPa 0,0 l/m 0 min 0 min 5 W/m 20,9 km/h (4 Bft) 97,87 %
28.06.2017 03:40 19,1 C 19,4 C 17,8 C 93 % 1 lf 997,6 hPa 0,0 l/m 0 min 0 min 5 W/m 16,7 km/h (3 Bft) 98,18 %
28.06.2017 03:42 19,1 C 19,4 C 17,8 C 93 % 1 lf 997,7 hPa 0,0 l/m 0 min 0 min 5 W/m 14,6 km/h (3 Bft) 95,92 %
28.06.2017 03:44 19,1 C 19,4 C 17,8 C 93 % 1 lf 997,7 hPa 0,0 l/m 0 min 0 min 5 W/m 20,9 km/h (4 Bft) 97,22 %
28.06.2017 03:46 19,1 C 19,4 C 17,8 C 93 % 1 lf 997,8 hPa 0,0 l/m 0 min 0 min 5 W/m 16,7 km/h (3 Bft) 95,74 %
28.06.2017 03:48 19,2 C 19,4 C 17,8 C 92 % 1 lf 997,7 hPa 0,0 l/m 0 min 0 min 5 W/m 18,8 km/h (3 Bft) 98,18 %
28.06.2017 03:50 19,2 C 19,4 C 17,8 C 92 % 1 lf 997,7 hPa 0,0 l/m 0 min 0 min 5 W/m 14,6 km/h (3 Bft) 98,00 %
28.06.2017 03:52 19,2 C 19,4 C 17,8 C 92 % 1 lf 997,8 hPa 0,0 l/m 0 min 0 min 5 W/m 14,6 km/h (3 Bft) 100,00 %
28.06.2017 03:54 19,2 C 19,4 C 17,8 C 92 % 1 lf 997,7 hPa 0,0 l/m 0 min 0 min 5 W/m 16,7 km/h (3 Bft) 100,00 %
28.06.2017 03:56 19,2 C 19,4 C 17,8 C 92 % 1 lf 997,7 hPa 0,0 l/m 0 min 0 min 5 W/m 10,5 km/h (2 Bft) 97,87 %
28.06.2017 03:58 19,2 C 19,4 C 17,8 C 92 % 1 lf 997,7 hPa 0,0 l/m 0 min 0 min 5 W/m 10,5 km/h (2 Bft) 94,55 %
28.06.2017 04:00 19,2 C 19,4 C 17,8 C 92 % 1 lf 997,7 hPa 0,0 l/m 0 min 0 min 5 W/m 14,6 km/h (3 Bft) 100,00 %
28.06.2017 04:02 19,3 C 19,4 C 17,8 C 92 % 1 lf 997,7 hPa 0,0 l/m 0 min 0 min 5 W/m 14,6 km/h (3 Bft) 100,00 %
28.06.2017 04:07 19,3 C 19,4 C 17,8 C 92 % 1 lf 997,5 hPa 0,0 l/m 0 min 0 min 5 W/m 14,6 km/h (3 Bft) 96,15 %
28.06.2017 04:08 19,3 C 19,4 C 17,8 C 92 % 1 lf 997,5 hPa 0,0 l/m 0 min 0 min 5 W/m 12,6 km/h (3 Bft) 95,65 %
28.06.2017 04:10 19,3 C 19,4 C 17,8 C 92 % 1 lf 997,6 hPa 0,0 l/m 0 min 0 min 3 W/m 14,6 km/h (3 Bft) 97,87 %
28.06.2017 04:12 19,3 C 19,4 C 17,8 C 92 % 1 lf 997,5 hPa 0,0 l/m 0 min 0 min 5 W/m 18,8 km/h (3 Bft) 97,87 %
28.06.2017 04:14 19,3 C 19,4 C 17,8 C 92 % 1 lf 997,5 hPa 0,0 l/m 0 min 0 min 5 W/m 14,6 km/h (3 Bft) 97,87 %
28.06.2017 04:16 19,3 C 19,4 C 17,8 C 92 % 1 lf 997,5 hPa 0,0 l/m 0 min 0 min 5 W/m 14,6 km/h (3 Bft) 97,87 %
28.06.2017 04:18 19,3 C 19,4 C 17,8 C 92 % 1 lf 997,5 hPa 0,0 l/m 0 min 0 min 5 W/m 16,7 km/h (3 Bft) 95,74 %
28.06.2017 04:20 19,3 C 19,4 C 17,8 C 92 % 1 lf 997,5 hPa 0,0 l/m 0 min 0 min 5 W/m 12,6 km/h (3 Bft) 95,65 %
28.06.2017 04:22 19,3 C 19,4 C 17,8 C 92 % 1 lf 997,6 hPa 0,0 l/m 0 min 0 min 5 W/m 20,9 km/h (4 Bft) 91,49 %
28.06.2017 04:24 19,3 C 19,4 C 17,8 C 92 % 1 lf 997,4 hPa 0,0 l/m 0 min 0 min 5 W/m 18,8 km/h (3 Bft) 93,62 %
28.06.2017 04:26 19,3 C 19,4 C 17,8 C 92 % 1 lf 997,4 hPa 0,0 l/m 0 min 0 min 5 W/m 14,6 km/h (3 Bft) 93,62 %
28.06.2017 04:28 19,4 C 19,4 C 17,8 C 92 % 1 lf 997,4 hPa 0,0 l/m 0 min 0 min 5 W/m 12,6 km/h (3 Bft) 95,74 %
28.06.2017 04:30 19,4 C 18,9 C 17,2 C 91 % 1 lf 997,4 hPa 0,0 l/m 0 min 0 min 5 W/m 16,7 km/h (3 Bft) 95,74 %
28.06.2017 04:32 19,4 C 18,9 C 17,2 C 91 % 1 lf 997,3 hPa 0,0 l/m 0 min 0 min 4 W/m 12,6 km/h (3 Bft) 95,65 %
28.06.2017 04:34 19,3 C 18,9 C 17,2 C 91 % 1 lf 997,3 hPa 0,0 l/m 0 min 0 min 2 W/m 16,7 km/h (3 Bft) 95,74 %
28.06.2017 04:36 19,4 C 18,9 C 17,2 C 91 % 1 lf 997,2 hPa 0,0 l/m 0 min 0 min 5 W/m 10,5 km/h (2 Bft) 95,74 %
28.06.2017 04:38 19,4 C 19,4 C 17,8 C 91 % 1 lf 997,3 hPa 0,0 l/m 0 min 0 min 4 W/m 12,6 km/h (3 Bft) 93,62 %
28.06.2017 04:40 19,4 C 19,4 C 17,8 C 91 % 1 lf 997,3 hPa 0,0 l/m 0 min 0 min 2 W/m 23,0 km/h (4 Bft) 91,49 %
28.06.2017 04:42 19,4 C 19,4 C 17,8 C 91 % 1 lf 997,2 hPa 0,0 l/m 0 min 0 min 2 W/m 14,6 km/h (3 Bft) 91,30 %
28.06.2017 04:44 19,3 C 18,9 C 17,8 C 91 % 1 lf 997,2 hPa 0,0 l/m 0 min 0 min 1 W/m 10,5 km/h (2 Bft) 93,62 %
28.06.2017 04:46 19,4 C 18,9 C 17,8 C 91 % 1 lf 997,2 hPa 0,0 l/m 0 min 0 min 1 W/m 14,6 km/h (3 Bft) 89,36 %
28.06.2017 04:48 19,3 C 18,9 C 17,2 C 91 % 1 lf 997,1 hPa 0,0 l/m 0 min 0 min 2 W/m 14,6 km/h (3 Bft) 93,62 %
28.06.2017 04:50 19,4 C 18,9 C 17,2 C 91 % 1 lf 997,1 hPa 0,0 l/m 0 min 0 min 4 W/m 8,4 km/h (2 Bft) 93,62 %
28.06.2017 04:52 19,3 C 18,9 C 17,8 C 91 % 1 lf 997,1 hPa 0,0 l/m 0 min 0 min 0 W/m 10,5 km/h (2 Bft) 95,74 %
28.06.2017 04:54 19,3 C 18,9 C 17,8 C 91 % 1 lf 997,1 hPa 0,0 l/m 0 min 0 min 0 W/m 12,6 km/h (3 Bft) 97,83 %
28.06.2017 04:56 19,3 C 18,9 C 17,8 C 91 % 1 lf 997,0 hPa 0,0 l/m 0 min 0 min 0 W/m 8,4 km/h (2 Bft) 95,74 %
28.06.2017 04:58 19,3 C 18,9 C 17,8 C 91 % 1 lf 996,9 hPa 0,0 l/m 0 min 0 min 0 W/m 12,6 km/h (3 Bft) 97,87 %
28.06.2017 05:00 19,3 C 18,9 C 17,8 C 91 % 1 lf 996,9 hPa 0,0 l/m 0 min 0 min 2 W/m 12,6 km/h (3 Bft) 95,74 %
28.06.2017 05:02 19,3 C 18,9 C 17,8 C 91 % 1 lf 996,9 hPa 0,0 l/m 0 min 0 min 0 W/m 14,6 km/h (3 Bft) 97,87 %
28.06.2017 05:04 19,3 C 18,9 C 17,8 C 91 % 1 lf 996,9 hPa 0,0 l/m 0 min 0 min 0 W/m 16,7 km/h (3 Bft) 93,62 %
28.06.2017 05:06 19,3 C 18,9 C 17,8 C 91 % 1 lf 996,9 hPa 0,0 l/m 0 min 0 min 1 W/m 16,7 km/h (3 Bft) 97,83 %
28.06.2017 05:08 19,3 C 18,9 C 17,8 C 91 % 1 lf 996,8 hPa 0,0 l/m 0 min 0 min 5 W/m 10,5 km/h (2 Bft) 95,74 %
28.06.2017 05:10 19,3 C 18,9 C 17,8 C 91 % 1 lf 996,8 hPa 0,0 l/m 0 min 0 min 3 W/m 12,6 km/h (3 Bft) 97,87 %
28.06.2017 05:12 19,3 C 18,9 C 17,8 C 91 % 1 lf 996,7 hPa 0,0 l/m 0 min 0 min 0 W/m 14,6 km/h (3 Bft) 95,74 %
28.06.2017 05:14 19,3 C 18,9 C 17,8 C 91 % 1 lf 996,7 hPa 0,0 l/m 0 min 0 min 3 W/m 20,9 km/h (4 Bft) 97,87 %
28.06.2017 05:16 19,3 C 18,9 C 17,8 C 91 % 1 lf 996,7 hPa 0,0 l/m 0 min 0 min 5 W/m 12,6 km/h (3 Bft) 95,74 %
28.06.2017 05:18 19,3 C 19,4 C 17,8 C 91 % 1 lf 996,7 hPa 0,0 l/m 0 min 0 min 5 W/m 8,4 km/h (2 Bft) 97,83 %
28.06.2017 05:20 19,3 C 19,4 C 17,8 C 91 % 1 lf 996,7 hPa 0,0 l/m 0 min 0 min 5 W/m 10,5 km/h (2 Bft) 97,87 %
28.06.2017 05:22 19,3 C 19,4 C 17,8 C 91 % 1 lf 996,6 hPa 0,0 l/m 0 min 0 min 5 W/m 12,6 km/h (3 Bft) 93,62 %
28.06.2017 05:24 19,3 C 19,4 C 17,8 C 91 % 1 lf 996,6 hPa 0,0 l/m 0 min 0 min 5 W/m 12,6 km/h (3 Bft) 97,87 %
28.06.2017 05:26 19,3 C 19,4 C 17,8 C 91 % 1 lf 996,7 hPa 0,0 l/m 0 min 0 min 5 W/m 16,7 km/h (3 Bft) 97,87 %
28.06.2017 05:28 19,3 C 19,4 C 17,8 C 92 % 1 lf 996,7 hPa 0,0 l/m 0 min 0 min 5 W/m 12,6 km/h (3 Bft) 97,87 %
28.06.2017 05:30 19,3 C 19,4 C 17,8 C 92 % 1 lf 996,7 hPa 0,0 l/m 0 min 0 min 5 W/m 20,9 km/h (4 Bft) 97,83 %
28.06.2017 05:32 19,3 C 19,4 C 17,8 C 92 % 1 lf 996,7 hPa 0,0 l/m 0 min 0 min 5 W/m 10,5 km/h (2 Bft) 100,00 %
28.06.2017 05:34 19,3 C 19,4 C 17,8 C 92 % 1 lf 996,8 hPa 0,0 l/m 0 min 0 min 5 W/m 12,6 km/h (3 Bft) 100,00 %
28.06.2017 05:36 19,3 C 18,9 C 17,8 C 92 % 1 lf 996,8 hPa 0,0 l/m 0 min 2 min 5 W/m 16,7 km/h (3 Bft) 97,87 %
28.06.2017 05:38 19,3 C 18,9 C 17,8 C 92 % 1 lf 996,8 hPa 0,0 l/m 0 min 0 min 5 W/m 16,7 km/h (3 Bft) 95,74 %
28.06.2017 05:40 19,4 C 18,9 C 17,8 C 92 % 1 lf 996,7 hPa 0,0 l/m 0 min 0 min 5 W/m 12,6 km/h (3 Bft) 100,00 %
28.06.2017 05:42 19,4 C 18,9 C 17,8 C 92 % 1 lf 996,7 hPa 0,0 l/m 0 min 0 min 7 W/m 23,0 km/h (4 Bft) 97,83 %
28.06.2017 05:44 19,4 C 18,9 C 17,8 C 92 % 1 lf 996,7 hPa 0,0 l/m 0 min 2 min 7 W/m 12,6 km/h (3 Bft) 100,00 %
28.06.2017 05:46 19,4 C 19,4 C 17,8 C 92 % 1 lf 996,7 hPa 0,0 l/m 0 min 0 min 9 W/m 18,8 km/h (3 Bft) 95,74 %
28.06.2017 05:48 19,4 C 19,4 C 17,8 C 92 % 1 lf 996,8 hPa 0,0 l/m 0 min 0 min 9 W/m 14,6 km/h (3 Bft) 100,00 %
28.06.2017 05:50 19,4 C 19,4 C 17,8 C 91 % 1 lf 996,7 hPa 0,0 l/m 0 min 0 min 11 W/m 12,6 km/h (3 Bft) 100,00 %
28.06.2017 05:52 19,4 C 19,4 C 17,8 C 91 % 1 lf 996,7 hPa 0,0 l/m 0 min 0 min 11 W/m 18,8 km/h (3 Bft) 97,87 %
28.06.2017 05:54 19,4 C 19,4 C 17,8 C 91 % 1 lf 996,7 hPa 0,0 l/m 0 min 0 min 11 W/m 16,7 km/h (3 Bft) 100,00 %
28.06.2017 05:56 19,4 C 19,4 C 17,8 C 91 % 1 lf 996,7 hPa 0,0 l/m 0 min 0 min 11 W/m 12,6 km/h (3 Bft) 97,87 %
28.06.2017 05:58 19,4 C 19,4 C 17,8 C 91 % 1 lf 996,7 hPa 0,0 l/m 0 min 0 min 12 W/m 18,8 km/h (3 Bft) 100,00 %
28.06.2017 06:00 19,5 C 19,4 C 17,8 C 91 % 1 lf 996,7 hPa 0,0 l/m 0 min 0 min 13 W/m 14,6 km/h (3 Bft) 100,00 %
28.06.2017 06:02 19,5 C 19,4 C 17,8 C 91 % 1 lf 996,7 hPa 0,0 l/m 0 min 0 min 14 W/m 16,7 km/h (3 Bft) 100,00 %
28.06.2017 06:04 19,5 C 19,4 C 17,8 C 91 % 1 lf 996,8 hPa 0,0 l/m 0 min 0 min 14 W/m 12,6 km/h (3 Bft) 100,00 %
28.06.2017 06:06 19,5 C 19,4 C 17,8 C 91 % 1 lf 996,9 hPa 0,0 l/m 0 min 0 min 14 W/m 18,8 km/h (3 Bft) 97,92 %
28.06.2017 06:08 19,5 C 19,4 C 17,8 C 91 % 1 lf 996,9 hPa 0,0 l/m 0 min 0 min 14 W/m 18,8 km/h (3 Bft) 100,00 %
28.06.2017 06:10 19,5 C 19,4 C 18,3 C 91 % 1 lf 996,9 hPa 0,0 l/m 0 min 0 min 14 W/m 16,7 km/h (3 Bft) 100,00 %
28.06.2017 06:12 19,5 C 19,4 C 18,3 C 91 % 1 lf 997,0 hPa 0,0 l/m 0 min 0 min 14 W/m 18,8 km/h (3 Bft) 95,74 %
28.06.2017 06:14 19,5 C 19,4 C 18,3 C 91 % 1 lf 997,0 hPa 0,0 l/m 0 min 0 min 14 W/m 18,8 km/h (3 Bft) 100,00 %
28.06.2017 06:16 19,5 C 19,4 C 17,8 C 91 % 1 lf 996,9 hPa 0,0 l/m 0 min 0 min 14 W/m 16,7 km/h (3 Bft) 97,83 %
28.06.2017 06:18 19,5 C 19,4 C 17,8 C 91 % 1 lf 996,9 hPa 0,0 l/m 0 min 2 min 14 W/m 18,8 km/h (3 Bft) 100,00 %
28.06.2017 06:20 19,5 C 19,4 C 17,8 C 91 % 1 lf 996,9 hPa 0,0 l/m 0 min 2 min 14 W/m 20,9 km/h (4 Bft) 97,87 %
28.06.2017 06:22 19,5 C 18,9 C 17,8 C 91 % 1 lf 996,8 hPa 0,0 l/m 0 min 2 min 14 W/m 16,7 km/h (3 Bft) 97,87 %
28.06.2017 06:24 19,5 C 18,9 C 17,2 C 91 % 1 lf 996,8 hPa 0,0 l/m 0 min 2 min 14 W/m 18,8 km/h (3 Bft) 95,74 %
28.06.2017 06:26 19,5 C 18,3 C 17,2 C 91 % 1 lf 996,8 hPa 0,0 l/m 0 min 2 min 14 W/m 14,6 km/h (3 Bft) 95,74 %
28.06.2017 06:28 19,6 C 18,3 C 17,2 C 91 % 3 lf 996,8 hPa 0,0 l/m 0 min 2 min 15 W/m 16,7 km/h (3 Bft) 95,65 %
28.06.2017 06:30 19,6 C 17,8 C 16,7 C 91 % 3 lf 996,9 hPa 0,2 l/m 0 min 2 min 16 W/m 16,7 km/h (3 Bft) 91,49 %
28.06.2017 06:32 19,6 C 17,8 C 16,7 C 92 % 2 lf 997,0 hPa 0,0 l/m 0 min 2 min 18 W/m 16,7 km/h (3 Bft) 91,49 %
28.06.2017 06:34 19,5 C 17,8 C 16,7 C 92 % 3 lf 997,0 hPa 0,0 l/m 0 min 2 min 18 W/m 16,7 km/h (3 Bft) 95,74 %
28.06.2017 06:36 19,5 C 17,8 C 16,7 C 92 % 2 lf 997,1 hPa 0,0 l/m 0 min 2 min 19 W/m 16,7 km/h (3 Bft) 93,62 %
28.06.2017 06:38 19,5 C 17,8 C 16,7 C 92 % 1 lf 997,1 hPa 0,0 l/m 0 min 2 min 21 W/m 16,7 km/h (3 Bft) 95,74 %
28.06.2017 06:40 19,4 C 17,8 C 16,7 C 92 % 2 lf 997,1 hPa 0,0 l/m 0 min 2 min 24 W/m 14,6 km/h (3 Bft) 95,65 %
28.06.2017 06:42 19,4 C 17,8 C 16,7 C 92 % 2 lf 997,1 hPa 0,0 l/m 0 min 2 min 28 W/m 20,9 km/h (4 Bft) 95,74 %
28.06.2017 06:44 19,4 C 17,8 C 16,7 C 92 % 3 lf 997,0 hPa 0,0 l/m 0 min 2 min 31 W/m 14,6 km/h (3 Bft) 95,74 %
28.06.2017 06:46 19,4 C 17,8 C 16,7 C 92 % 2 lf 997,0 hPa 0,0 l/m 0 min 2 min 33 W/m 14,6 km/h (3 Bft) 91,49 %
28.06.2017 06:48 19,3 C 17,8 C 16,7 C 92 % 2 lf 997,0 hPa 0,0 l/m 0 min 2 min 35 W/m 14,6 km/h (3 Bft) 95,74 %
28.06.2017 06:50 19,3 C 17,8 C 16,7 C 92 % 1 lf 996,9 hPa 0,0 l/m 0 min 2 min 37 W/m 12,6 km/h (3 Bft) 93,62 %
28.06.2017 06:52 19,3 C 17,8 C 16,7 C 93 % 2 lf 997,0 hPa 0,0 l/m 0 min 2 min 37 W/m 8,4 km/h (2 Bft) 93,48 %
28.06.2017 06:54 19,2 C 17,8 C 16,7 C 92 % 1 lf 996,9 hPa 0,0 l/m 0 min 2 min 37 W/m 14,6 km/h (3 Bft) 95,74 %
28.06.2017 06:56 19,2 C 17,8 C 16,7 C 92 % 1 lf 996,9 hPa 0,0 l/m 0 min 2 min 37 W/m 6,3 km/h (2 Bft) 95,74 %
28.06.2017 06:58 19,2 C 17,8 C 17,2 C 92 % 4 lf 996,9 hPa 0,0 l/m 0 min 2 min 39 W/m 6,3 km/h (2 Bft) 89,36 %
28.06.2017 07:00 19,2 C 17,8 C 17,2 C 93 % 15 lf 996,9 hPa 0,0 l/m 0 min 2 min 39 W/m 8,4 km/h (2 Bft) 95,74 %
28.06.2017 07:02 19,2 C 17,8 C 16,7 C 93 % 15 lf 997,0 hPa 0,2 l/m 0 min 2 min 43 W/m 8,4 km/h (2 Bft) 89,13 %
28.06.2017 07:04 19,2 C 17,8 C 17,2 C 93 % 14 lf 997,0 hPa 0,0 l/m 0 min 2 min 49 W/m 10,5 km/h (2 Bft) 95,74 %
28.06.2017 07:06 19,2 C 17,8 C 17,2 C 93 % 14 lf 997,0 hPa 0,0 l/m 0 min 2 min 55 W/m 10,5 km/h (2 Bft) 93,62 %
28.06.2017 07:08 19,2 C 17,8 C 17,2 C 93 % 13 lf 997,0 hPa 0,0 l/m 0 min 2 min 62 W/m 10,5 km/h (2 Bft) 95,74 %
28.06.2017 07:10 19,1 C 17,8 C 17,2 C 93 % 12 lf 996,9 hPa 0,0 l/m 0 min 2 min 67 W/m 10,5 km/h (2 Bft) 95,74 %
28.06.2017 07:12 19,1 C 17,8 C 17,2 C 93 % 11 lf 997,0 hPa 0,2 l/m 0 min 2 min 72 W/m 8,4 km/h (2 Bft) 95,74 %
28.06.2017 07:14 19,1 C 17,8 C 17,2 C 93 % 11 lf 996,9 hPa 0,0 l/m 0 min 2 min 79 W/m 8,4 km/h (2 Bft) 95,74 %
28.06.2017 07:16 19,1 C 17,8 C 17,2 C 93 % 9 lf 997,0 hPa 0,0 l/m 0 min 0 min 76 W/m 12,6 km/h (3 Bft) 95,65 %
28.06.2017 07:18 19,1 C 17,8 C 17,2 C 93 % 4 lf 996,9 hPa 0,0 l/m 0 min 0 min 69 W/m 10,5 km/h (2 Bft) 93,62 %
28.06.2017 07:20 19,1 C 17,8 C 17,2 C 93 % 3 lf 996,9 hPa 0,0 l/m 0 min 0 min 62 W/m 14,6 km/h (3 Bft) 93,62 %
28.06.2017 07:23 19,0 C 17,8 C 17,2 C 93 % 1 lf 996,8 hPa 0,0 l/m 0 min 0 min 52 W/m 12,6 km/h (3 Bft) 97,14 %
28.06.2017 07:24 19,0 C 17,8 C 17,2 C 93 % 1 lf 996,8 hPa 0,0 l/m 0 min 0 min 45 W/m 12,6 km/h (3 Bft) 95,83 %
28.06.2017 07:26 19,0 C 17,8 C 16,7 C 93 % 1 lf 996,7 hPa 0,0 l/m 0 min 0 min 43 W/m 12,6 km/h (3 Bft) 91,30 %
28.06.2017 07:28 18,9 C 17,8 C 16,7 C 93 % 1 lf 996,6 hPa 0,0 l/m 0 min 0 min 42 W/m 8,4 km/h (2 Bft) 97,87 %
28.06.2017 07:30 18,9 C 17,8 C 16,7 C 93 % 2 lf 996,7 hPa 0,0 l/m 0 min 2 min 45 W/m 10,5 km/h (2 Bft) 97,87 %
28.06.2017 07:32 18,9 C 17,8 C 16,7 C 93 % 3 lf 996,7 hPa 0,0 l/m 0 min 2 min 55 W/m 14,6 km/h (3 Bft) 97,87 %
28.06.2017 07:34 18,9 C 17,8 C 16,7 C 93 % 2 lf 996,6 hPa 0,0 l/m 0 min 0 min 68 W/m 10,5 km/h (2 Bft) 95,74 %
28.06.2017 07:36 18,9 C 17,8 C 17,2 C 93 % 3 lf 996,6 hPa 0,0 l/m 0 min 2 min 73 W/m 14,6 km/h (3 Bft) 100,00 %
28.06.2017 07:38 18,9 C 17,8 C 17,2 C 93 % 2 lf 996,6 hPa 0,0 l/m 0 min 2 min 65 W/m 12,6 km/h (3 Bft) 100,00 %
28.06.2017 07:40 18,8 C 17,8 C 16,7 C 93 % 1 lf 996,6 hPa 0,0 l/m 0 min 0 min 47 W/m 16,7 km/h (3 Bft) 97,87 %
28.06.2017 07:42 18,8 C 17,2 C 16,7 C 93 % 1 lf 996,6 hPa 0,0 l/m 0 min 2 min 36 W/m 8,4 km/h (2 Bft) 97,87 %
28.06.2017 07:44 18,7 C 17,2 C 16,7 C 93 % 1 lf 996,6 hPa 0,0 l/m 0 min 0 min 27 W/m 8,4 km/h (2 Bft) 97,87 %
28.06.2017 07:46 18,7 C 17,2 C 16,7 C 94 % 1 lf 996,6 hPa 0,0 l/m 0 min 2 min 20 W/m 14,6 km/h (3 Bft) 95,74 %
28.06.2017 07:48 18,7 C 17,2 C 16,7 C 94 % 1 lf 996,6 hPa 0,0 l/m 0 min 0 min 16 W/m 10,5 km/h (2 Bft) 97,87 %
28.06.2017 07:50 18,7 C 17,2 C 16,7 C 94 % 2 lf 996,7 hPa 0,0 l/m 0 min 0 min 17 W/m 12,6 km/h (3 Bft) 95,65 %
28.06.2017 07:52 18,6 C 17,2 C 16,7 C 94 % 2 lf 996,7 hPa 0,0 l/m 0 min 2 min 19 W/m 16,7 km/h (3 Bft) 97,87 %
28.06.2017 07:54 18,6 C 17,2 C 16,7 C 94 % 15 lf 996,7 hPa 0,2 l/m 0 min 2 min 22 W/m 18,8 km/h (3 Bft) 89,36 %
28.06.2017 07:56 18,6 C 17,2 C 16,7 C 94 % 15 lf 996,8 hPa 0,0 l/m 0 min 2 min 21 W/m 14,6 km/h (3 Bft) 95,74 %
28.06.2017 07:58 18,5 C 17,2 C 16,7 C 94 % 15 lf 996,7 hPa 0,0 l/m 0 min 2 min 33 W/m 14,6 km/h (3 Bft) 95,74 %
28.06.2017 08:00 18,5 C 17,2 C 16,7 C 94 % 15 lf 996,7 hPa 0,0 l/m 0 min 2 min 42 W/m 14,6 km/h (3 Bft) 97,87 %
28.06.2017 08:02 18,4 C 17,2 C 16,7 C 94 % 15 lf 996,8 hPa 0,2 l/m 0 min 2 min 45 W/m 12,6 km/h (3 Bft) 95,65 %
28.06.2017 08:04 18,4 C 17,2 C 16,7 C 94 % 15 lf 996,8 hPa 0,2 l/m 0 min 2 min 46 W/m 10,5 km/h (2 Bft) 97,87 %
28.06.2017 08:06 18,4 C 17,2 C 16,7 C 94 % 15 lf 996,7 hPa 0,0 l/m 0 min 2 min 41 W/m 16,7 km/h (3 Bft) 93,62 %
28.06.2017 08:08 18,4 C 17,2 C 16,7 C 94 % 15 lf 996,7 hPa 0,0 l/m 0 min 2 min 43 W/m 10,5 km/h (2 Bft) 95,74 %
28.06.2017 08:10 18,4 C 17,2 C 16,7 C 94 % 15 lf 996,7 hPa 0,0 l/m 0 min 0 min 56 W/m 12,6 km/h (3 Bft) 97,87 %
28.06.2017 08:12 18,4 C 17,2 C 16,7 C 94 % 15 lf 996,7 hPa 0,0 l/m 0 min 2 min 60 W/m 14,6 km/h (3 Bft) 91,30 %
28.06.2017 08:14 18,4 C 17,8 C 16,7 C 95 % 15 lf 996,6 hPa 0,0 l/m 0 min 2 min 66 W/m 10,5 km/h (2 Bft) 97,87 %
28.06.2017 08:16 18,3 C 17,8 C 16,7 C 95 % 15 lf 996,6 hPa 0,0 l/m 0 min 2 min 79 W/m 16,7 km/h (3 Bft) 93,62 %
28.06.2017 08:18 18,4 C 17,8 C 16,7 C 95 % 15 lf 996,6 hPa 0,0 l/m 0 min 2 min 92 W/m 14,6 km/h (3 Bft) 95,74 %
28.06.2017 08:20 18,4 C 17,8 C 17,2 C 95 % 15 lf 996,6 hPa 0,0 l/m 0 min 2 min 112 W/m 12,6 km/h (3 Bft) 93,62 %
28.06.2017 08:22 18,4 C 17,8 C 17,2 C 95 % 15 lf 996,6 hPa 0,0 l/m 0 min 2 min 132 W/m 12,6 km/h (3 Bft) 95,74 %
28.06.2017 08:24 18,4 C 17,8 C 17,2 C 95 % 15 lf 996,6 hPa 0,0 l/m 0 min 2 min 145 W/m 10,5 km/h (2 Bft) 95,74 %
28.06.2017 08:26 18,4 C 17,8 C 17,2 C 95 % 15 lf 996,6 hPa 0,0 l/m 0 min 2 min 148 W/m 14,6 km/h (3 Bft) 95,65 %
28.06.2017 08:28 18,4 C 17,8 C 17,2 C 95 % 15 lf 996,6 hPa 0,0 l/m 0 min 2 min 143 W/m 16,7 km/h (3 Bft) 91,49 %
28.06.2017 08:30 18,4 C 17,8 C 17,2 C 95 % 15 lf 996,6 hPa 0,0 l/m 0 min 0 min 133 W/m 14,6 km/h (3 Bft) 97,87 %
28.06.2017 08:32 18,4 C 17,8 C 17,2 C 95 % 15 lf 996,6 hPa 0,0 l/m 0 min 0 min 119 W/m 14,6 km/h (3 Bft) 97,87 %
28.06.2017 08:34 18,5 C 17,8 C 17,2 C 96 % 15 lf 996,6 hPa 0,0 l/m 0 min 0 min 106 W/m 18,8 km/h (3 Bft) 97,87 %
28.06.2017 08:36 18,5 C 17,8 C 17,2 C 96 % 15 lf 996,6 hPa 0,0 l/m 0 min 0 min 98 W/m 18,8 km/h (3 Bft) 95,65 %
28.06.2017 08:38 18,5 C 17,8 C 17,2 C 96 % 15 lf 996,6 hPa 0,0 l/m 0 min 0 min 94 W/m 14,6 km/h (3 Bft) 97,87 %
28.06.2017 08:40 18,5 C 17,8 C 17,2 C 96 % 15 lf 996,5 hPa 0,0 l/m 0 min 0 min 96 W/m 12,6 km/h (3 Bft) 95,74 %
28.06.2017 08:42 18,5 C 18,3 C 17,2 C 96 % 15 lf 996,4 hPa 0,0 l/m 0 min 0 min 107 W/m 8,4 km/h (2 Bft) 95,74 %
28.06.2017 08:44 18,5 C 18,3 C 17,2 C 96 % 15 lf 996,5 hPa 0,0 l/m 0 min 0 min 130 W/m 12,6 km/h (3 Bft) 95,74 %
28.06.2017 08:46 18,5 C 18,3 C 17,8 C 96 % 15 lf 996,6 hPa 0,0 l/m 0 min 0 min 163 W/m 16,7 km/h (3 Bft) 97,87 %
28.06.2017 08:48 18,5 C 18,3 C 17,8 C 96 % 15 lf 996,5 hPa 0,0 l/m 0 min 0 min 202 W/m 20,9 km/h (4 Bft) 97,83 %
28.06.2017 08:50 18,6 C 18,9 C 17,8 C 96 % 14 lf 996,5 hPa 0,0 l/m 0 min 0 min 213 W/m 16,7 km/h (3 Bft) 97,87 %
28.06.2017 08:52 18,6 C 18,9 C 17,8 C 96 % 9 lf 996,5 hPa 0,0 l/m 0 min 0 min 235 W/m 18,8 km/h (3 Bft) 97,87 %
28.06.2017 08:54 18,6 C 19,4 C 18,3 C 96 % 3 lf 996,5 hPa 0,0 l/m 2 min 0 min 282 W/m 16,7 km/h (3 Bft) 100,00 %
28.06.2017 08:56 18,7 C 20,0 C 18,3 C 96 % 1 lf 996,5 hPa 0,0 l/m 2 min 0 min 338 W/m 10,5 km/h (2 Bft) 97,87 %
28.06.2017 08:58 18,8 C 20,0 C 18,3 C 96 % 1 lf 996,4 hPa 0,0 l/m 2 min 0 min 320 W/m 10,5 km/h (2 Bft) 100,00 %
28.06.2017 09:00 18,9 C 20,0 C 18,9 C 97 % 1 lf 996,4 hPa 0,0 l/m 2 min 0 min 293 W/m 18,8 km/h (3 Bft) 100,00 %
28.06.2017 09:02 18,9 C 20,6 C 18,9 C 97 % 1 lf 996,4 hPa 0,0 l/m 2 min 0 min 287 W/m 20,9 km/h (4 Bft) 100,00 %
28.06.2017 09:04 19,1 C 20,6 C 18,9 C 97 % 1 lf 996,4 hPa 0,0 l/m 2 min 0 min 309 W/m 10,5 km/h (2 Bft) 100,00 %
28.06.2017 09:06 19,1 C 21,1 C 18,9 C 97 % 1 lf 996,3 hPa 0,0 l/m 2 min 0 min 345 W/m 14,6 km/h (3 Bft) 100,00 %
28.06.2017 09:08 19,2 C 21,7 C 19,4 C 97 % 0 lf 996,3 hPa 0,0 l/m 2 min 0 min 442 W/m 12,6 km/h (3 Bft) 100,00 %
28.06.2017 09:10 19,3 C 21,7 C 19,4 C 97 % 0 lf 996,2 hPa 0,0 l/m 2 min 0 min 401 W/m 12,6 km/h (3 Bft) 100,00 %
28.06.2017 09:12 19,4 C 21,7 C 19,4 C 97 % 0 lf 996,2 hPa 0,0 l/m 2 min 0 min 405 W/m 18,8 km/h (3 Bft) 97,83 %
28.06.2017 09:14 19,5 C 21,1 C 19,4 C 97 % 0 lf 996,2 hPa 0,0 l/m 2 min 0 min 365 W/m 16,7 km/h (3 Bft) 100,00 %
28.06.2017 09:16 19,6 C 21,7 C 20,0 C 97 % 0 lf 996,2 hPa 0,0 l/m 2 min 0 min 382 W/m 16,7 km/h (3 Bft) 97,87 %
28.06.2017 09:18 19,7 C 21,7 C 20,0 C 97 % 0 lf 996,2 hPa 0,0 l/m 2 min 0 min 371 W/m 20,9 km/h (4 Bft) 100,00 %
28.06.2017 09:20 19,7 C 21,1 C 20,0 C 97 % 0 lf 996,3 hPa 0,0 l/m 2 min 0 min 318 W/m 14,6 km/h (3 Bft) 97,87 %
28.06.2017 09:22 19,8 C 20,6 C 19,4 C 97 % 0 lf 996,2 hPa 0,0 l/m 2 min 0 min 289 W/m 18,8 km/h (3 Bft) 100,00 %
28.06.2017 09:24 19,8 C 20,6 C 19,4 C 97 % 0 lf 996,3 hPa 0,0 l/m 0 min 0 min 255 W/m 18,8 km/h (3 Bft) 100,00 %
28.06.2017 09:26 19,8 C 20,0 C 19,4 C 97 % 0 lf 996,3 hPa 0,0 l/m 0 min 0 min 228 W/m 27,2 km/h (4 Bft) 100,00 %
28.06.2017 09:28 19,8 C 20,0 C 19,4 C 96 % 0 lf 996,2 hPa 0,0 l/m 0 min 0 min 208 W/m 16,7 km/h (3 Bft) 97,87 %
28.06.2017 09:30 19,8 C 20,0 C 19,4 C 96 % 0 lf 996,3 hPa 0,0 l/m 0 min 0 min 191 W/m 18,8 km/h (3 Bft) 100,00 %
28.06.2017 09:32 19,8 C 20,0 C 18,9 C 96 % 0 lf 996,2 hPa 0,0 l/m 0 min 0 min 184 W/m 16,7 km/h (3 Bft) 100,00 %
28.06.2017 09:34 19,8 C 20,0 C 18,9 C 96 % 0 lf 996,2 hPa 0,0 l/m 0 min 0 min 184 W/m 20,9 km/h (4 Bft) 97,87 %
28.06.2017 09:36 19,8 C 20,0 C 18,9 C 96 % 0 lf 996,2 hPa 0,0 l/m 0 min 0 min 177 W/m 20,9 km/h (4 Bft) 95,65 %
28.06.2017 09:38 19,8 C 19,4 C 18,3 C 96 % 0 lf 996,2 hPa 0,0 l/m 0 min 0 min 168 W/m 12,6 km/h (3 Bft) 97,87 %
28.06.2017 09:40 19,8 C 19,4 C 18,3 C 95 % 0 lf 996,2 hPa 0,0 l/m 0 min 0 min 164 W/m 16,7 km/h (3 Bft) 97,87 %
28.06.2017 09:42 19,8 C 20,0 C 18,9 C 95 % 1 lf 996,2 hPa 0,0 l/m 0 min 0 min 168 W/m 10,5 km/h (2 Bft) 95,74 %
28.06.2017 09:44 19,8 C 19,4 C 18,9 C 95 % 0 lf 996,2 hPa 0,0 l/m 0 min 0 min 168 W/m 16,7 km/h (3 Bft) 97,87 %
28.06.2017 09:46 19,8 C 19,4 C 18,9 C 95 % 0 lf 996,2 hPa 0,0 l/m 0 min 0 min 159 W/m 12,6 km/h (3 Bft) 97,83 %
28.06.2017 09:48 19,8 C 19,4 C 18,9 C 95 % 0 lf 996,2 hPa 0,0 l/m 0 min 0 min 156 W/m 16,7 km/h (3 Bft) 95,74 %
28.06.2017 09:50 19,8 C 19,4 C 18,9 C 95 % 0 lf 996,2 hPa 0,0 l/m 0 min 0 min 156 W/m 16,7 km/h (3 Bft) 100,00 %
28.06.2017 09:52 19,8 C 19,4 C 18,9 C 95 % 1 lf 996,3 hPa 0,0 l/m 0 min 0 min 146 W/m 14,6 km/h (3 Bft) 95,74 %
28.06.2017 09:54 19,8 C 19,4 C 18,3 C 95 % 1 lf 996,3 hPa 0,0 l/m 0 min 0 min 132 W/m 16,7 km/h (3 Bft) 95,74 %
28.06.2017 09:56 19,8 C 19,4 C 18,3 C 94 % 0 lf 996,3 hPa 0,0 l/m 0 min 0 min 132 W/m 16,7 km/h (3 Bft) 95,74 %
28.06.2017 09:58 19,8 C 19,4 C 18,3 C 94 % 1 lf 996,3 hPa 0,0 l/m 0 min 0 min 140 W/m 14,6 km/h (3 Bft) 93,48 %
28.06.2017 10:00 19,8 C 19,4 C 18,3 C 94 % 1 lf 996,3 hPa 0,0 l/m 0 min 0 min 145 W/m 14,6 km/h (3 Bft) 95,74 %
28.06.2017 10:03 19,8 C 18,9 C 18,3 C 94 % 1 lf 996,3 hPa 0,0 l/m 0 min 0 min 138 W/m 23,0 km/h (4 Bft) 95,77 %
28.06.2017 10:04 19,8 C 18,9 C 18,3 C 94 % 1 lf 996,3 hPa 0,0 l/m 0 min 0 min 127 W/m 16,7 km/h (3 Bft) 95,65 %
28.06.2017 10:06 19,8 C 18,9 C 18,3 C 94 % 1 lf 996,3 hPa 0,0 l/m 0 min 0 min 128 W/m 20,9 km/h (4 Bft) 95,74 %
28.06.2017 10:08 19,8 C 19,4 C 18,3 C 94 % 1 lf 996,3 hPa 0,0 l/m 0 min 0 min 136 W/m 14,6 km/h (3 Bft) 95,74 %
28.06.2017 10:10 19,8 C 18,9 C 17,8 C 93 % 1 lf 996,3 hPa 0,0 l/m 0 min 0 min 143 W/m 23,0 km/h (4 Bft) 84,78 %
28.06.2017 10:12 19,7 C 18,9 C 17,8 C 93 % 1 lf 996,3 hPa 0,0 l/m 0 min 0 min 151 W/m 14,6 km/h (3 Bft) 93,62 %
28.06.2017 10:14 19,7 C 18,9 C 17,8 C 93 % 1 lf 996,3 hPa 0,0 l/m 0 min 0 min 155 W/m 16,7 km/h (3 Bft) 95,74 %
28.06.2017 10:16 19,7 C 18,9 C 17,8 C 93 % 1 lf 996,3 hPa 0,0 l/m 0 min 0 min 161 W/m 14,6 km/h (3 Bft) 97,87 %
28.06.2017 10:18 19,6 C 18,9 C 18,3 C 93 % 0 lf 996,3 hPa 0,0 l/m 0 min 0 min 180 W/m 23,0 km/h (4 Bft) 93,62 %
28.06.2017 10:20 19,6 C 18,9 C 18,3 C 93 % 0 lf 996,3 hPa 0,0 l/m 0 min 0 min 196 W/m 14,6 km/h (3 Bft) 93,62 %
28.06.2017 10:22 19,6 C 18,9 C 18,3 C 93 % 0 lf 996,3 hPa 0,0 l/m 0 min 0 min 184 W/m 20,9 km/h (4 Bft) 95,65 %
28.06.2017 10:24 19,6 C 18,9 C 18,3 C 93 % 0 lf 996,2 hPa 0,0 l/m 0 min 0 min 176 W/m 8,4 km/h (2 Bft) 95,74 %
28.06.2017 10:26 19,6 C 19,4 C 18,9 C 93 % 0 lf 996,2 hPa 0,0 l/m 0 min 0 min 173 W/m 10,5 km/h (2 Bft) 93,62 %
28.06.2017 10:28 19,6 C 19,4 C 18,9 C 93 % 0 lf 996,3 hPa 0,0 l/m 0 min 0 min 149 W/m 18,8 km/h (3 Bft) 91,49 %
28.06.2017 10:30 19,6 C 18,9 C 18,9 C 93 % 0 lf 996,3 hPa 0,0 l/m 0 min 0 min 136 W/m 23,0 km/h (4 Bft) 93,62 %
28.06.2017 10:32 19,6 C 18,9 C 18,9 C 92 % 1 lf 996,3 hPa 0,0 l/m 0 min 0 min 143 W/m 27,2 km/h (4 Bft) 95,74 %
28.06.2017 10:34 19,6 C 19,4 C 18,9 C 92 % 1 lf 996,2 hPa 0,0 l/m 0 min 0 min 175 W/m 20,9 km/h (4 Bft) 95,65 %
28.06.2017 10:36 19,6 C 20,0 C 19,4 C 92 % 0 lf 996,2 hPa 0,0 l/m 0 min 0 min 215 W/m 14,6 km/h (3 Bft) 95,74 %
28.06.2017 10:38 19,6 C 20,6 C 19,4 C 92 % 0 lf 996,2 hPa 0,0 l/m 0 min 0 min 249 W/m 18,8 km/h (3 Bft) 95,74 %
28.06.2017 10:40 19,6 C 20,6 C 20,0 C 92 % 0 lf 996,2 hPa 0,0 l/m 0 min 0 min 259 W/m 12,6 km/h (3 Bft) 93,62 %
28.06.2017 10:42 19,6 C 20,6 C 20,0 C 92 % 0 lf 996,1 hPa 0,0 l/m 0 min 0 min 257 W/m 18,8 km/h (3 Bft) 91,49 %
28.06.2017 10:44 19,6 C 20,6 C 20,0 C 92 % 0 lf 996,2 hPa 0,0 l/m 0 min 0 min 248 W/m 20,9 km/h (4 Bft) 91,49 %
28.06.2017 10:46 19,6 C 20,6 C 20,0 C 92 % 0 lf 996,2 hPa 0,0 l/m 0 min 0 min 213 W/m 25,1 km/h (4 Bft) 89,13 %
28.06.2017 10:48 19,6 C 20,6 C 20,0 C 92 % 0 lf 996,1 hPa 0,0 l/m 0 min 0 min 179 W/m 14,6 km/h (3 Bft) 91,49 %
28.06.2017 10:50 19,7 C 20,6 C 20,0 C 92 % 0 lf 996,2 hPa 0,0 l/m 0 min 0 min 139 W/m 10,5 km/h (2 Bft) 93,62 %
28.06.2017 10:52 19,7 C 20,6 C 19,4 C 92 % 0 lf 996,1 hPa 0,0 l/m 0 min 0 min 117 W/m 14,6 km/h (3 Bft) 91,49 %
28.06.2017 10:54 19,7 C 20,6 C 19,4 C 93 % 0 lf 996,1 hPa 0,0 l/m 0 min 0 min 120 W/m 16,7 km/h (3 Bft) 93,62 %
28.06.2017 10:56 19,7 C 20,6 C 19,4 C 93 % 0 lf 996,1 hPa 0,0 l/m 0 min 0 min 137 W/m 14,6 km/h (3 Bft) 93,62 %
28.06.2017 10:58 19,7 C 20,6 C 19,4 C 93 % 0 lf 996,1 hPa 0,0 l/m 0 min 0 min 152 W/m 20,9 km/h (4 Bft) 97,83 %
28.06.2017 11:00 19,7 C 20,6 C 20,0 C 92 % 0 lf 996,1 hPa 0,0 l/m 0 min 0 min 160 W/m 12,6 km/h (3 Bft) 95,74 %
28.06.2017 11:02 19,8 C 20,6 C 20,0 C 92 % 0 lf 996,1 hPa 0,0 l/m 0 min 0 min 170 W/m 10,5 km/h (2 Bft) 93,62 %
28.06.2017 11:04 19,8 C 20,6 C 20,0 C 92 % 0 lf 996,1 hPa 0,0 l/m 0 min 0 min 176 W/m 14,6 km/h (3 Bft) 97,87 %
28.06.2017 11:06 19,8 C 21,1 C 20,0 C 92 % 0 lf 996,0 hPa 0,0 l/m 0 min 0 min 184 W/m 14,6 km/h (3 Bft) 97,87 %
28.06.2017 11:08 19,8 C 21,1 C 20,6 C 92 % 0 lf 996,0 hPa 0,0 l/m 0 min 0 min 210 W/m 12,6 km/h (3 Bft) 97,83 %
28.06.2017 11:10 19,9 C 21,1 C 20,6 C 92 % 0 lf 996,0 hPa 0,0 l/m 0 min 0 min 243 W/m 16,7 km/h (3 Bft) 97,87 %
28.06.2017 11:12 19,9 C 21,7 C 21,1 C 92 % 0 lf 996,0 hPa 0,0 l/m 0 min 0 min 274 W/m 16,7 km/h (3 Bft) 97,87 %
28.06.2017 11:14 19,9 C 21,7 C 21,1 C 92 % 0 lf 995,9 hPa 0,0 l/m 0 min 0 min 289 W/m 20,9 km/h (4 Bft) 95,74 %
28.06.2017 11:16 19,9 C 21,7 C 21,7 C 92 % 0 lf 995,9 hPa 0,0 l/m 0 min 0 min 256 W/m 20,9 km/h (4 Bft) 97,87 %
28.06.2017 11:18 20,0 C 21,1 C 21,1 C 92 % 0 lf 995,9 hPa 0,0 l/m 0 min 0 min 210 W/m 27,2 km/h (4 Bft) 95,74 %
28.06.2017 11:20 20,0 C 21,1 C 21,1 C 92 % 0 lf 996,0 hPa 0,0 l/m 0 min 0 min 198 W/m 23,0 km/h (4 Bft) 95,65 %
28.06.2017 11:22 20,0 C 21,1 C 21,1 C 92 % 0 lf 995,9 hPa 0,0 l/m 0 min 0 min 194 W/m 18,8 km/h (3 Bft) 97,87 %
28.06.2017 11:24 20,1 C 21,1 C 20,6 C 92 % 0 lf 995,9 hPa 0,0 l/m 0 min 0 min 188 W/m 16,7 km/h (3 Bft) 97,87 %
28.06.2017 11:26 20,1 C 21,1 C 20,6 C 92 % 0 lf 995,9 hPa 0,0 l/m 0 min 0 min 192 W/m 16,7 km/h (3 Bft) 97,87 %
28.06.2017 11:28 20,1 C 21,1 C 20,6 C 92 % 0 lf 995,9 hPa 0,0 l/m 0 min 0 min 186 W/m 16,7 km/h (3 Bft) 97,87 %
28.06.2017 11:30 20,1 C 21,1 C 20,6 C 92 % 0 lf 995,9 hPa 0,0 l/m 0 min 0 min 174 W/m 20,9 km/h (4 Bft) 97,87 %
28.06.2017 11:32 20,2 C 21,1 C 20,6 C 92 % 0 lf 995,8 hPa 0,0 l/m 0 min 0 min 176 W/m 14,6 km/h (3 Bft) 93,48 %
28.06.2017 11:34 20,2 C 21,1 C 20,6 C 92 % 0 lf 995,9 hPa 0,0 l/m 0 min 0 min 183 W/m 12,6 km/h (3 Bft) 97,87 %
28.06.2017 11:36 20,2 C 21,7 C 20,6 C 92 % 0 lf 995,9 hPa 0,0 l/m 0 min 0 min 192 W/m 20,9 km/h (4 Bft) 97,87 %
28.06.2017 11:38 20,2 C 21,7 C 21,1 C 92 % 0 lf 995,8 hPa 0,0 l/m 0 min 0 min 226 W/m 12,6 km/h (3 Bft) 97,87 %
28.06.2017 11:40 20,2 C 21,7 C 21,1 C 92 % 0 lf 995,8 hPa 0,0 l/m 0 min 0 min 275 W/m 20,9 km/h (4 Bft) 100,00 %
28.06.2017 11:42 20,3 C 21,7 C 21,7 C 91 % 0 lf 995,8 hPa 0,0 l/m 0 min 0 min 313 W/m 23,0 km/h (4 Bft) 97,87 %
28.06.2017 11:44 20,3 C 22,2 C 21,7 C 91 % 0 lf 995,8 hPa 0,0 l/m 0 min 0 min 330 W/m 16,7 km/h (3 Bft) 100,00 %
28.06.2017 11:46 20,3 C 22,2 C 22,2 C 91 % 0 lf 995,8 hPa 0,0 l/m 0 min 0 min 321 W/m 18,8 km/h (3 Bft) 100,00 %
28.06.2017 11:48 20,3 C 21,7 C 21,7 C 91 % 0 lf 995,8 hPa 0,0 l/m 0 min 0 min 312 W/m 27,2 km/h (4 Bft) 100,00 %
28.06.2017 11:50 20,3 C 22,2 C 22,2 C 91 % 0 lf 995,7 hPa 0,0 l/m 0 min 0 min 326 W/m 18,8 km/h (3 Bft) 100,00 %
28.06.2017 11:52 20,4 C 22,2 C 22,2 C 91 % 0 lf 995,7 hPa 0,0 l/m 0 min 0 min 351 W/m 23,0 km/h (4 Bft) 100,00 %
28.06.2017 11:54 20,4 C 22,2 C 22,2 C 91 % 0 lf 995,7 hPa 0,0 l/m 0 min 0 min 359 W/m 25,1 km/h (4 Bft) 100,00 %
28.06.2017 11:56 20,5 C 22,2 C 22,2 C 91 % 0 lf 995,7 hPa 0,0 l/m 0 min 0 min 345 W/m 31,4 km/h (5 Bft) 100,00 %
28.06.2017 11:58 20,5 C 22,8 C 22,8 C 91 % 0 lf 995,7 hPa 0,0 l/m 0 min 0 min 354 W/m 16,7 km/h (3 Bft) 97,87 %
28.06.2017 12:00 20,6 C 23,3 C 22,8 C 91 % 0 lf 995,6 hPa 0,0 l/m 0 min 0 min 398 W/m 16,7 km/h (3 Bft) 97,87 %
28.06.2017 12:02 20,6 C 23,3 C 23,3 C 91 % 0 lf 995,6 hPa 0,0 l/m 2 min 0 min 426 W/m 18,8 km/h (3 Bft) 100,00 %
28.06.2017 12:04 20,7 C 23,3 C 23,9 C 91 % 0 lf 995,6 hPa 0,0 l/m 2 min 0 min 433 W/m 23,0 km/h (4 Bft) 97,87 %
28.06.2017 12:06 20,8 C 23,3 C 23,9 C 91 % 0 lf 995,7 hPa 0,0 l/m 2 min 0 min 420 W/m 23,0 km/h (4 Bft) 97,87 %
28.06.2017 12:08 20,9 C 23,9 C 24,4 C 91 % 0 lf 995,6 hPa 0,0 l/m 2 min 0 min 414 W/m 25,1 km/h (4 Bft) 100,00 %
28.06.2017 12:10 20,9 C 22,8 C 23,9 C 91 % 0 lf 995,7 hPa 0,0 l/m 2 min 0 min 423 W/m 25,1 km/h (4 Bft) 97,87 %
28.06.2017 12:12 20,9 C 22,8 C 23,9 C 90 % 0 lf 995,7 hPa 0,0 l/m 2 min 0 min 449 W/m 27,2 km/h (4 Bft) 95,74 %
28.06.2017 12:14 21,0 C 23,3 C 23,9 C 90 % 0 lf 995,6 hPa 0,0 l/m 2 min 0 min 480 W/m 25,1 km/h (4 Bft) 100,00 %
28.06.2017 12:16 21,1 C 24,4 C 24,4 C 90 % 0 lf 995,5 hPa 0,0 l/m 2 min 0 min 535 W/m 27,2 km/h (4 Bft) 97,83 %
28.06.2017 12:18 21,2 C 25,0 C 25,0 C 90 % 0 lf 995,5 hPa 0,0 l/m 2 min 0 min 561 W/m 25,1 km/h (4 Bft) 97,14 %
28.06.2017 12:20 21,2 C 25,0 C 25,6 C 90 % 0 lf 995,5 hPa 0,0 l/m 2 min 0 min 526 W/m 12,6 km/h (3 Bft) 95,74 %
28.06.2017 12:22 21,3 C 24,4 C 25,6 C 89 % 0 lf 995,5 hPa 0,0 l/m 2 min 0 min 504 W/m 25,1 km/h (4 Bft) 95,74 %
28.06.2017 12:24 21,4 C 23,9 C 25,6 C 89 % 0 lf 995,4 hPa 0,0 l/m 2 min 0 min 500 W/m 25,1 km/h (4 Bft) 95,74 %
28.06.2017 12:26 21,4 C 23,3 C 25,0 C 88 % 0 lf 995,5 hPa 0,0 l/m 2 min 0 min 469 W/m 20,9 km/h (4 Bft) 94,44 %
28.06.2017 12:28 21,4 C 23,9 C 25,0 C 88 % 0 lf 995,4 hPa 0,0 l/m 2 min 0 min 439 W/m 18,8 km/h (3 Bft) 93,62 %
28.06.2017 12:30 21,6 C 25,0 C 25,0 C 88 % 0 lf 995,4 hPa 0,0 l/m 2 min 0 min 441 W/m 18,8 km/h (3 Bft) 93,62 %
28.06.2017 12:32 21,7 C 25,0 C 25,6 C 88 % 0 lf 995,5 hPa 0,0 l/m 2 min 0 min 431 W/m 14,6 km/h (3 Bft) 95,65 %
28.06.2017 12:34 21,7 C 24,4 C 25,6 C 88 % 0 lf 995,4 hPa 0,0 l/m 2 min 0 min 440 W/m 18,8 km/h (3 Bft) 95,74 %
28.06.2017 12:36 21,8 C 24,4 C 25,0 C 88 % 0 lf 995,3 hPa 0,0 l/m 2 min 0 min 427 W/m 18,8 km/h (3 Bft) 95,74 %
28.06.2017 12:38 21,8 C 24,4 C 25,6 C 87 % 0 lf 995,3 hPa 0,0 l/m 2 min 0 min 434 W/m 18,8 km/h (3 Bft) 95,74 %
28.06.2017 12:40 21,9 C 24,4 C 25,0 C 87 % 0 lf 995,3 hPa 0,0 l/m 2 min 0 min 602 W/m 20,9 km/h (4 Bft) 93,62 %
28.06.2017 12:42 21,9 C 24,4 C 25,0 C 86 % 0 lf 995,3 hPa 0,0 l/m 2 min 0 min 566 W/m 16,7 km/h (3 Bft) 95,74 %
28.06.2017 12:44 22,0 C 24,4 C 25,0 C 87 % 0 lf 995,3 hPa 0,0 l/m 2 min 0 min 471 W/m 14,6 km/h (3 Bft) 95,65 %
28.06.2017 12:46 22,1 C 23,9 C 25,0 C 86 % 0 lf 995,3 hPa 0,0 l/m 0 min 0 min 342 W/m 18,8 km/h (3 Bft) 93,62 %
28.06.2017 12:48 22,1 C 23,9 C 25,0 C 86 % 0 lf 995,3 hPa 0,0 l/m 0 min 0 min 342 W/m 18,8 km/h (3 Bft) 93,62 %
28.06.2017 12:50 22,1 C 23,9 C 24,4 C 85 % 0 lf 995,3 hPa 0,0 l/m 0 min 0 min 348 W/m 25,1 km/h (4 Bft) 95,74 %
28.06.2017 12:52 22,1 C 23,3 C 24,4 C 85 % 0 lf 995,4 hPa 0,0 l/m 0 min 0 min 331 W/m 20,9 km/h (4 Bft) 95,74 %
28.06.2017 12:54 22,1 C 23,3 C 23,9 C 84 % 0 lf 995,3 hPa 0,0 l/m 0 min 0 min 273 W/m 25,1 km/h (4 Bft) 97,87 %
28.06.2017 12:56 22,1 C 23,3 C 23,9 C 84 % 0 lf 995,2 hPa 0,0 l/m 0 min 0 min 283 W/m 18,8 km/h (3 Bft) 95,65 %
28.06.2017 12:58 22,2 C 23,3 C 23,9 C 84 % 0 lf 995,3 hPa 0,0 l/m 0 min 0 min 311 W/m 27,2 km/h (4 Bft) 95,74 %
28.06.2017 13:00 22,2 C 23,3 C 23,9 C 84 % 0 lf 995,2 hPa 0,0 l/m 0 min 0 min 237 W/m 20,9 km/h (4 Bft) 97,87 %
28.06.2017 13:02 22,2 C 23,3 C 23,3 C 84 % 0 lf 995,2 hPa 0,0 l/m 0 min 0 min 177 W/m 18,8 km/h (3 Bft) 100,00 %
28.06.2017 13:04 22,2 C 23,3 C 23,3 C 84 % 0 lf 995,3 hPa 0,0 l/m 0 min 0 min 173 W/m 16,7 km/h (3 Bft) 100,00 %
28.06.2017 13:06 22,2 C 22,8 C 23,3 C 84 % 0 lf 995,2 hPa 0,0 l/m 0 min 0 min 170 W/m 14,6 km/h (3 Bft) 100,00 %
28.06.2017 13:08 22,2 C 22,8 C 22,8 C 84 % 0 lf 995,2 hPa 0,0 l/m 0 min 0 min 132 W/m 20,9 km/h (4 Bft) 97,87 %
28.06.2017 13:10 22,2 C 22,2 C 22,2 C 83 % 0 lf 995,2 hPa 0,0 l/m 0 min 0 min 97 W/m 25,1 km/h (4 Bft) 100,00 %
28.06.2017 13:12 22,2 C 22,2 C 21,7 C 83 % 0 lf 995,2 hPa 0,0 l/m 0 min 2 min 72 W/m 16,7 km/h (3 Bft) 97,87 %
28.06.2017 13:14 22,1 C 22,2 C 21,7 C 83 % 1 lf 995,1 hPa 0,0 l/m 0 min 2 min 59 W/m 14,6 km/h (3 Bft) 97,87 %
28.06.2017 13:16 22,1 C 21,7 C 20,6 C 83 % 5 lf 995,1 hPa 0,0 l/m 0 min 2 min 54 W/m 29,3 km/h (5 Bft) 100,00 %
28.06.2017 13:18 22,1 C 20,6 C 19,4 C 83 % 14 lf 995,1 hPa 0,0 l/m 0 min 2 min 57 W/m 27,2 km/h (4 Bft) 100,00 %
28.06.2017 13:20 21,9 C 20,6 C 18,9 C 83 % 12 lf 995,2 hPa 0,0 l/m 0 min 2 min 94 W/m 20,9 km/h (4 Bft) 100,00 %
28.06.2017 13:22 21,9 C 20,6 C 19,4 C 84 % 4 lf 995,1 hPa 0,0 l/m 0 min 2 min 154 W/m 29,3 km/h (5 Bft) 97,87 %
28.06.2017 13:24 21,8 C 20,6 C 20,0 C 84 % 2 lf 995,2 hPa 0,0 l/m 0 min 2 min 155 W/m 16,7 km/h (3 Bft) 97,87 %
28.06.2017 13:26 21,8 C 21,1 C 20,0 C 84 % 0 lf 995,2 hPa 0,0 l/m 0 min 0 min 144 W/m 12,6 km/h (3 Bft) 95,74 %
28.06.2017 13:28 21,7 C 21,1 C 20,0 C 85 % 0 lf 995,1 hPa 0,0 l/m 0 min 0 min 108 W/m 10,5 km/h (2 Bft) 97,87 %
28.06.2017 13:30 21,7 C 21,1 C 20,6 C 85 % 0 lf 995,1 hPa 0,0 l/m 0 min 0 min 91 W/m 14,6 km/h (3 Bft) 97,83 %
28.06.2017 13:32 21,7 C 21,7 C 20,6 C 85 % 0 lf 995,1 hPa 0,0 l/m 0 min 0 min 148 W/m 16,7 km/h (3 Bft) 95,74 %
28.06.2017 13:34 21,6 C 21,7 C 21,1 C 85 % 0 lf 995,1 hPa 0,0 l/m 0 min 0 min 175 W/m 18,8 km/h (3 Bft) 97,87 %
28.06.2017 13:36 21,6 C 22,2 C 21,1 C 85 % 0 lf 995,2 hPa 0,0 l/m 0 min 0 min 160 W/m 23,0 km/h (4 Bft) 95,74 %
28.06.2017 13:38 21,6 C 21,7 C 21,1 C 85 % 0 lf 995,2 hPa 0,0 l/m 0 min 0 min 118 W/m 33,5 km/h (5 Bft) 95,74 %
28.06.2017 13:40 21,4 C 21,7 C 20,6 C 85 % 0 lf 995,1 hPa 0,0 l/m 0 min 0 min 109 W/m 29,3 km/h (5 Bft) 97,87 %
28.06.2017 13:42 21,4 C 21,7 C 20,6 C 84 % 0 lf 995,2 hPa 0,0 l/m 0 min 0 min 120 W/m 29,3 km/h (5 Bft) 97,83 %
28.06.2017 13:44 21,3 C 21,7 C 20,6 C 84 % 2 lf 995,1 hPa 0,0 l/m 0 min 0 min 147 W/m 16,7 km/h (3 Bft) 91,49 %
28.06.2017 13:46 21,2 C 21,7 C 20,6 C 85 % 1 lf 995,1 hPa 0,0 l/m 0 min 2 min 160 W/m 18,8 km/h (3 Bft) 95,74 %
28.06.2017 13:48 21,2 C 21,7 C 20,0 C 85 % 4 lf 995,2 hPa 0,0 l/m 0 min 2 min 152 W/m 20,9 km/h (4 Bft) 97,87 %
28.06.2017 13:50 21,2 C 21,1 C 20,0 C 85 % 3 lf 995,2 hPa 0,0 l/m 0 min 2 min 154 W/m 23,0 km/h (4 Bft) 97,87 %
28.06.2017 13:52 21,1 C 21,7 C 20,0 C 85 % 3 lf 995,2 hPa 0,0 l/m 0 min 2 min 175 W/m 23,0 km/h (4 Bft) 91,49 %
28.06.2017 13:54 21,1 C 21,7 C 20,0 C 86 % 0 lf 995,1 hPa 0,0 l/m 0 min 2 min 211 W/m 12,6 km/h (3 Bft) 95,65 %
28.06.2017 13:56 21,1 C 22,2 C 20,6 C 86 % 1 lf 995,2 hPa 0,0 l/m 0 min 0 min 260 W/m 18,8 km/h (3 Bft) 95,74 %
28.06.2017 13:58 21,1 C 22,8 C 21,1 C 87 % 0 lf 995,2 hPa 0,0 l/m 0 min 0 min 319 W/m 18,8 km/h (3 Bft) 93,62 %
28.06.2017 14:00 21,1 C 23,9 C 21,7 C 87 % 0 lf 995,2 hPa 0,0 l/m 0 min 0 min 374 W/m 10,5 km/h (2 Bft) 93,62 %
28.06.2017 14:02 21,1 C 23,9 C 22,8 C 87 % 0 lf 995,1 hPa 0,0 l/m 2 min 0 min 426 W/m 25,1 km/h (4 Bft) 95,74 %
28.06.2017 14:04 21,1 C 24,4 C 23,3 C 87 % 0 lf 995,1 hPa 0,0 l/m 2 min 0 min 454 W/m 16,7 km/h (3 Bft) 93,62 %
28.06.2017 14:06 21,2 C 24,4 C 23,9 C 87 % 0 lf 995,1 hPa 0,0 l/m 2 min 0 min 470 W/m 23,0 km/h (4 Bft) 93,48 %
28.06.2017 14:08 21,2 C 24,4 C 24,4 C 86 % 0 lf 995,1 hPa 0,0 l/m 2 min 0 min 481 W/m 16,7 km/h (3 Bft) 93,62 %
28.06.2017 14:10 21,3 C 24,4 C 24,4 C 86 % 0 lf 995,1 hPa 0,0 l/m 2 min 0 min 467 W/m 18,8 km/h (3 Bft) 95,74 %
28.06.2017 14:12 21,4 C 24,4 C 24,4 C 86 % 0 lf 995,1 hPa 0,0 l/m 2 min 0 min 464 W/m 16,7 km/h (3 Bft) 95,74 %
28.06.2017 14:14 21,4 C 25,0 C 25,0 C 86 % 0 lf 995,1 hPa 0,0 l/m 2 min 0 min 469 W/m 25,1 km/h (4 Bft) 93,62 %
28.06.2017 14:16 21,6 C 25,0 C 25,6 C 86 % 0 lf 995,2 hPa 0,0 l/m 2 min 0 min 437 W/m 20,9 km/h (4 Bft) 95,74 %
28.06.2017 14:18 21,7 C 25,0 C 25,0 C 85 % 0 lf 995,1 hPa 0,0 l/m 2 min 0 min 421 W/m 23,0 km/h (4 Bft) 93,48 %
28.06.2017 14:20 21,7 C 24,4 C 24,4 C 85 % 0 lf 995,1 hPa 0,0 l/m 0 min 0 min 375 W/m 23,0 km/h (4 Bft) 97,87 %
28.06.2017 14:22 21,8 C 23,9 C 24,4 C 84 % 0 lf 995,0 hPa 0,0 l/m 0 min 0 min 305 W/m 20,9 km/h (4 Bft) 95,74 %
28.06.2017 14:24 21,8 C 23,3 C 23,9 C 84 % 0 lf 995,0 hPa 0,0 l/m 0 min 0 min 264 W/m 18,8 km/h (3 Bft) 95,74 %
28.06.2017 14:26 21,9 C 23,3 C 23,3 C 84 % 0 lf 995,0 hPa 0,0 l/m 0 min 0 min 231 W/m 14,6 km/h (3 Bft) 89,36 %
28.06.2017 14:28 21,9 C 23,3 C 23,3 C 84 % 0 lf 995,0 hPa 0,0 l/m 0 min 0 min 171 W/m 14,6 km/h (3 Bft) 97,87 %
28.06.2017 14:30 21,9 C 22,8 C 22,8 C 84 % 0 lf 995,1 hPa 0,0 l/m 0 min 0 min 90 W/m 18,8 km/h (3 Bft) 96,08 %
28.06.2017 14:32 21,9 C 22,2 C 21,7 C 84 % 9 lf 995,2 hPa 0,0 l/m 0 min 2 min 66 W/m 29,3 km/h (5 Bft) 93,62 %
28.06.2017 14:34 21,8 C 21,1 C 20,6 C 83 % 10 lf 995,1 hPa 0,0 l/m 0 min 2 min 65 W/m 33,5 km/h (5 Bft) 95,74 %
28.06.2017 14:36 21,7 C 20,6 C 19,4 C 82 % 14 lf 995,2 hPa 0,0 l/m 0 min 2 min 63 W/m 23,0 km/h (4 Bft) 95,65 %
28.06.2017 14:38 21,6 C 20,0 C 18,9 C 82 % 15 lf 995,3 hPa 0,0 l/m 0 min 2 min 63 W/m 31,4 km/h (5 Bft) 93,62 %
28.06.2017 14:40 21,3 C 19,4 C 18,3 C 82 % 15 lf 995,2 hPa 0,0 l/m 0 min 2 min 71 W/m 27,2 km/h (4 Bft) 95,74 %
28.06.2017 14:42 21,2 C 19,4 C 18,3 C 83 % 15 lf 995,3 hPa 0,0 l/m 0 min 2 min 90 W/m 23,0 km/h (4 Bft) 91,49 %
28.06.2017 14:44 21,1 C 19,4 C 18,3 C 84 % 15 lf 995,2 hPa 0,0 l/m 0 min 2 min 92 W/m 25,1 km/h (4 Bft) 93,62 %
28.06.2017 14:46 21,0 C 18,9 C 17,8 C 84 % 15 lf 995,3 hPa 0,2 l/m 0 min 2 min 81 W/m 20,9 km/h (4 Bft) 93,62 %
28.06.2017 14:48 20,8 C 18,9 C 17,8 C 85 % 15 lf 995,3 hPa 0,0 l/m 0 min 2 min 82 W/m 23,0 km/h (4 Bft) 95,65 %
28.06.2017 14:50 20,7 C 18,9 C 17,8 C 86 % 15 lf 995,2 hPa 0,0 l/m 0 min 2 min 94 W/m 23,0 km/h (4 Bft) 97,87 %
28.06.2017 14:52 20,6 C 18,9 C 17,8 C 86 % 15 lf 995,3 hPa 0,0 l/m 0 min 2 min 96 W/m 25,1 km/h (4 Bft) 97,87 %
28.06.2017 14:54 20,4 C 18,9 C 17,8 C 87 % 15 lf 995,3 hPa 0,0 l/m 0 min 2 min 96 W/m 20,9 km/h (4 Bft) 97,87 %
28.06.2017 14:56 20,4 C 18,9 C 17,8 C 87 % 15 lf 995,4 hPa 0,0 l/m 0 min 2 min 94 W/m 20,9 km/h (4 Bft) 95,74 %
28.06.2017 14:58 20,3 C 18,9 C 17,8 C 88 % 15 lf 995,3 hPa 0,0 l/m 0 min 2 min 87 W/m 20,9 km/h (4 Bft) 95,74 %
28.06.2017 15:00 20,2 C 18,9 C 17,8 C 88 % 15 lf 995,4 hPa 0,0 l/m 0 min 2 min 84 W/m 18,8 km/h (3 Bft) 97,83 %
28.06.2017 15:02 20,2 C 18,9 C 17,8 C 88 % 15 lf 995,4 hPa 0,0 l/m 0 min 2 min 85 W/m 12,6 km/h (3 Bft) 93,62 %
28.06.2017 15:04 20,1 C 18,9 C 17,2 C 89 % 15 lf 995,5 hPa 0,0 l/m 0 min 2 min 87 W/m 27,2 km/h (4 Bft) 93,62 %
28.06.2017 15:06 19,9 C 18,3 C 17,2 C 89 % 15 lf 995,4 hPa 0,0 l/m 0 min 2 min 89 W/m 27,2 km/h (4 Bft) 97,87 %
28.06.2017 15:08 19,9 C 18,3 C 17,2 C 89 % 15 lf 995,4 hPa 0,2 l/m 0 min 2 min 94 W/m 31,4 km/h (5 Bft) 97,87 %
28.06.2017 15:10 19,8 C 18,3 C 17,2 C 90 % 15 lf 995,4 hPa 0,0 l/m 0 min 2 min 103 W/m 23,0 km/h (4 Bft) 97,87 %
28.06.2017 15:12 19,7 C 18,3 C 17,2 C 90 % 15 lf 995,4 hPa 0,0 l/m 0 min 2 min 112 W/m 25,1 km/h (4 Bft) 97,83 %
28.06.2017 15:14 19,6 C 18,3 C 17,2 C 91 % 15 lf 995,3 hPa 0,0 l/m 0 min 2 min 126 W/m 33,5 km/h (5 Bft) 95,74 %
28.06.2017 15:16 19,5 C 18,3 C 17,2 C 91 % 15 lf 995,4 hPa 0,0 l/m 0 min 2 min 139 W/m 25,1 km/h (4 Bft) 97,87 %
28.06.2017 15:18 19,5 C 18,3 C 17,8 C 91 % 15 lf 995,5 hPa 0,0 l/m 0 min 0 min 128 W/m 12,6 km/h (3 Bft) 97,87 %
28.06.2017 15:20 19,4 C 18,3 C 17,8 C 92 % 15 lf 995,5 hPa 0,0 l/m 0 min 0 min 120 W/m 16,7 km/h (3 Bft) 97,87 %
28.06.2017 15:22 19,4 C 18,3 C 17,8 C 92 % 15 lf 995,6 hPa 0,0 l/m 0 min 0 min 121 W/m 16,7 km/h (3 Bft) 95,65 %
28.06.2017 15:24 19,4 C 18,3 C 17,8 C 92 % 15 lf 995,5 hPa 0,0 l/m 0 min 0 min 113 W/m 23,0 km/h (4 Bft) 97,87 %
28.06.2017 15:26 19,4 C 18,3 C 17,8 C 92 % 15 lf 995,5 hPa 0,0 l/m 0 min 0 min 107 W/m 16,7 km/h (3 Bft) 95,74 %
28.06.2017 15:28 19,4 C 18,3 C 17,8 C 92 % 15 lf 995,5 hPa 0,0 l/m 0 min 0 min 111 W/m 20,9 km/h (4 Bft) 97,87 %
28.06.2017 15:30 19,3 C 18,3 C 17,8 C 92 % 15 lf 995,4 hPa 0,0 l/m 0 min 2 min 114 W/m 20,9 km/h (4 Bft) 97,87 %
28.06.2017 15:32 19,3 C 18,3 C 17,8 C 93 % 15 lf 995,4 hPa 0,0 l/m 0 min 2 min 128 W/m 18,8 km/h (3 Bft) 97,87 %
28.06.2017 15:34 19,3 C 18,9 C 17,8 C 93 % 15 lf 995,5 hPa 0,0 l/m 0 min 2 min 144 W/m 25,1 km/h (4 Bft) 89,36 %
28.06.2017 15:36 19,3 C 18,9 C 17,8 C 93 % 15 lf 995,4 hPa 0,0 l/m 0 min 2 min 150 W/m 18,8 km/h (3 Bft) 93,48 %
28.06.2017 15:38 19,2 C 18,9 C 17,8 C 93 % 15 lf 995,5 hPa 0,0 l/m 0 min 2 min 164 W/m 25,1 km/h (4 Bft) 97,87 %
28.06.2017 15:40 19,3 C 18,9 C 18,3 C 93 % 15 lf 995,5 hPa 0,0 l/m 0 min 2 min 173 W/m 14,6 km/h (3 Bft) 95,74 %
28.06.2017 15:42 19,2 C 18,9 C 17,8 C 93 % 15 lf 995,5 hPa 0,0 l/m 0 min 2 min 175 W/m 20,9 km/h (4 Bft) 100,00 %
28.06.2017 15:44 19,2 C 18,9 C 18,3 C 93 % 15 lf 995,5 hPa 0,0 l/m 0 min 2 min 159 W/m 14,6 km/h (3 Bft) 97,87 %
28.06.2017 15:46 19,2 C 18,9 C 17,8 C 93 % 15 lf 995,6 hPa 0,0 l/m 0 min 2 min 156 W/m 16,7 km/h (3 Bft) 100,00 %
28.06.2017 15:48 19,2 C 18,9 C 17,8 C 93 % 15 lf 995,6 hPa 0,0 l/m 0 min 2 min 156 W/m 18,8 km/h (3 Bft) 100,00 %
28.06.2017 15:50 19,2 C 18,9 C 18,3 C 93 % 15 lf 995,6 hPa 0,0 l/m 0 min 2 min 165 W/m 12,6 km/h (3 Bft) 93,62 %
28.06.2017 15:52 19,2 C 18,9 C 18,3 C 93 % 15 lf 995,6 hPa 0,0 l/m 0 min 2 min 159 W/m 12,6 km/h (3 Bft) 100,00 %
28.06.2017 15:54 19,2 C 18,9 C 18,3 C 93 % 15 lf 995,6 hPa 0,0 l/m 0 min 2 min 176 W/m 16,7 km/h (3 Bft) 100,00 %
28.06.2017 15:56 19,2 C 19,4 C 18,3 C 94 % 15 lf 995,6 hPa 0,0 l/m 0 min 2 min 180 W/m 14,6 km/h (3 Bft) 97,87 %
28.06.2017 15:58 19,3 C 19,4 C 18,3 C 94 % 15 lf 995,6 hPa 0,0 l/m 0 min 2 min 187 W/m 12,6 km/h (3 Bft) 100,00 %
28.06.2017 16:00 19,3 C 19,4 C 18,3 C 94 % 15 lf 995,5 hPa 0,0 l/m 0 min 2 min 202 W/m 8,4 km/h (2 Bft) 97,87 %
28.06.2017 16:02 19,3 C 20,0 C 18,9 C 94 % 15 lf 995,5 hPa 0,0 l/m 0 min 2 min 220 W/m 12,6 km/h (3 Bft) 97,87 %
28.06.2017 16:04 19,4 C 20,0 C 18,3 C 94 % 15 lf 995,5 hPa 0,0 l/m 0 min 0 min 237 W/m 14,6 km/h (3 Bft) 100,00 %
28.06.2017 16:06 19,4 C 20,0 C 18,9 C 94 % 15 lf 995,5 hPa 0,0 l/m 0 min 0 min 245 W/m 18,8 km/h (3 Bft) 100,00 %
28.06.2017 16:08 19,4 C 20,6 C 18,9 C 94 % 15 lf 995,5 hPa 0,0 l/m 0 min 2 min 240 W/m 18,8 km/h (3 Bft) 100,00 %
28.06.2017 16:10 19,4 C 20,6 C 18,9 C 94 % 15 lf 995,5 hPa 0,0 l/m 0 min 0 min 249 W/m 12,6 km/h (3 Bft) 100,00 %
28.06.2017 16:12 19,4 C 21,1 C 18,9 C 94 % 15 lf 995,5 hPa 0,0 l/m 0 min 0 min 275 W/m 20,9 km/h (4 Bft) 97,87 %
28.06.2017 16:14 19,5 C 21,7 C 19,4 C 94 % 14 lf 995,5 hPa 0,0 l/m 0 min 0 min 289 W/m 4,2 km/h (1 Bft) 100,00 %
28.06.2017 16:16 19,6 C 21,7 C 19,4 C 94 % 11 lf 995,4 hPa 0,0 l/m 0 min 0 min 279 W/m 6,3 km/h (2 Bft) 97,87 %
28.06.2017 16:18 19,6 C 21,7 C 19,4 C 94 % 2 lf 995,4 hPa 0,0 l/m 0 min 0 min 294 W/m 14,6 km/h (3 Bft) 100,00 %
28.06.2017 16:20 19,7 C 22,2 C 19,4 C 94 % 0 lf 995,5 hPa 0,0 l/m 0 min 0 min 333 W/m 12,6 km/h (3 Bft) 100,00 %
28.06.2017 16:22 19,7 C 22,8 C 19,4 C 94 % 0 lf 995,4 hPa 0,0 l/m 2 min 2 min 378 W/m 25,1 km/h (4 Bft) 97,83 %
28.06.2017 16:24 19,7 C 22,2 C 19,4 C 94 % 0 lf 995,3 hPa 0,0 l/m 2 min 0 min 401 W/m 20,9 km/h (4 Bft) 97,87 %
28.06.2017 16:26 19,8 C 22,8 C 19,4 C 94 % 0 lf 995,3 hPa 0,0 l/m 2 min 0 min 425 W/m 16,7 km/h (3 Bft) 93,62 %
28.06.2017 16:28 19,8 C 23,3 C 20,0 C 93 % 0 lf 995,4 hPa 0,0 l/m 2 min 0 min 374 W/m 23,0 km/h (4 Bft) 95,74 %
28.06.2017 16:30 19,9 C 23,3 C 20,6 C 93 % 0 lf 995,3 hPa 0,0 l/m 2 min 0 min 405 W/m 18,8 km/h (3 Bft) 95,74 %
28.06.2017 16:32 20,0 C 22,8 C 20,0 C 93 % 0 lf 995,3 hPa 0,0 l/m 2 min 0 min 411 W/m 23,0 km/h (4 Bft) 97,87 %
28.06.2017 16:34 20,1 C 23,3 C 20,0 C 92 % 0 lf 995,3 hPa 0,0 l/m 2 min 0 min 400 W/m 20,9 km/h (4 Bft) 97,83 %
28.06.2017 16:36 20,2 C 22,8 C 20,0 C 92 % 0 lf 995,3 hPa 0,0 l/m 2 min 0 min 425 W/m 20,9 km/h (4 Bft) 91,49 %
28.06.2017 16:38 20,3 C 22,8 C 20,6 C 91 % 0 lf 995,3 hPa 0,0 l/m 2 min 0 min 539 W/m 27,2 km/h (4 Bft) 97,87 %
28.06.2017 16:40 20,4 C 23,3 C 21,1 C 91 % 0 lf 995,2 hPa 0,0 l/m 2 min 0 min 626 W/m 18,8 km/h (3 Bft) 95,74 %
28.06.2017 16:42 20,5 C 23,3 C 21,1 C 90 % 0 lf 995,2 hPa 0,0 l/m 2 min 0 min 504 W/m 27,2 km/h (4 Bft) 97,87 %
28.06.2017 16:44 20,6 C 22,8 C 20,6 C 90 % 0 lf 995,2 hPa 0,0 l/m 2 min 0 min 373 W/m 27,2 km/h (4 Bft) 95,74 %
28.06.2017 16:46 20,6 C 22,8 C 20,0 C 88 % 0 lf 995,3 hPa 0,0 l/m 2 min 0 min 387 W/m 20,9 km/h (4 Bft) 95,65 %
28.06.2017 16:48 20,7 C 23,3 C 21,1 C 88 % 1 lf 995,2 hPa 0,0 l/m 2 min 2 min 455 W/m 23,0 km/h (4 Bft) 95,74 %
28.06.2017 16:50 20,8 C 23,3 C 22,2 C 88 % 2 lf 995,2 hPa 0,0 l/m 2 min 2 min 714 W/m 27,2 km/h (4 Bft) 95,74 %
28.06.2017 16:52 20,9 C 23,3 C 23,3 C 87 % 0 lf 995,0 hPa 0,0 l/m 2 min 0 min 503 W/m 16,7 km/h (3 Bft) 95,74 %
28.06.2017 16:54 20,9 C 23,3 C 23,3 C 87 % 0 lf 995,0 hPa 0,0 l/m 2 min 0 min 422 W/m 23,0 km/h (4 Bft) 93,62 %
28.06.2017 16:56 21,1 C 23,9 C 25,6 C 86 % 0 lf 995,0 hPa 0,0 l/m 2 min 0 min 586 W/m 23,0 km/h (4 Bft) 95,65 %
28.06.2017 16:58 21,2 C 24,4 C 27,8 C 87 % 0 lf 995,0 hPa 0,0 l/m 2 min 0 min 761 W/m 29,3 km/h (5 Bft) 91,49 %
28.06.2017 17:00 21,3 C 24,4 C 27,8 C 86 % 2 lf 995,0 hPa 0,0 l/m 2 min 0 min 909 W/m 20,9 km/h (4 Bft) 95,74 %
28.06.2017 17:02 21,4 C 23,9 C 26,1 C 84 % 0 lf 995,1 hPa 0,0 l/m 2 min 0 min 909 W/m 35,6 km/h (5 Bft) 93,62 %
28.06.2017 17:04 21,6 C 23,9 C 25,6 C 83 % 0 lf 995,1 hPa 0,0 l/m 2 min 0 min 619 W/m 23,0 km/h (4 Bft) 95,74 %
28.06.2017 17:06 21,6 C 23,9 C 25,0 C 82 % 0 lf 995,1 hPa 0,0 l/m 2 min 0 min 335 W/m 35,6 km/h (5 Bft) 93,62 %
28.06.2017 17:08 21,6 C 23,3 C 24,4 C 82 % 0 lf 995,2 hPa 0,0 l/m 2 min 0 min 354 W/m 23,0 km/h (4 Bft) 93,48 %
28.06.2017 17:10 21,7 C 23,9 C 24,4 C 82 % 0 lf 995,1 hPa 0,0 l/m 2 min 0 min 524 W/m 25,1 km/h (4 Bft) 97,87 %
28.06.2017 17:12 21,7 C 23,9 C 24,4 C 81 % 0 lf 995,1 hPa 0,0 l/m 2 min 0 min 453 W/m 23,0 km/h (4 Bft) 95,74 %
28.06.2017 17:14 21,8 C 23,9 C 24,4 C 81 % 0 lf 995,1 hPa 0,0 l/m 2 min 0 min 523 W/m 23,0 km/h (4 Bft) 95,74 %
28.06.2017 17:16 21,8 C 23,9 C 24,4 C 81 % 0 lf 995,1 hPa 0,0 l/m 2 min 0 min 750 W/m 31,4 km/h (5 Bft) 89,36 %
28.06.2017 17:18 21,8 C 23,3 C 24,4 C 81 % 0 lf 995,1 hPa 0,0 l/m 2 min 0 min 753 W/m 27,2 km/h (4 Bft) 93,62 %
28.06.2017 17:20 21,8 C 23,3 C 23,3 C 81 % 0 lf 995,2 hPa 0,0 l/m 2 min 0 min 628 W/m 35,6 km/h (5 Bft) 95,65 %
28.06.2017 17:22 21,8 C 22,8 C 23,3 C 80 % 0 lf 995,0 hPa 0,0 l/m 2 min 0 min 325 W/m 23,0 km/h (4 Bft) 93,62 %
28.06.2017 17:24 21,8 C 22,8 C 23,3 C 80 % 0 lf 995,0 hPa 0,0 l/m 0 min 0 min 282 W/m 25,1 km/h (4 Bft) 95,74 %
28.06.2017 17:26 21,8 C 23,9 C 23,9 C 81 % 0 lf 995,0 hPa 0,0 l/m 0 min 0 min 279 W/m 16,7 km/h (3 Bft) 95,74 %
28.06.2017 17:28 21,9 C 24,4 C 24,4 C 82 % 0 lf 995,0 hPa 0,0 l/m 2 min 0 min 734 W/m 25,1 km/h (4 Bft) 95,74 %
28.06.2017 17:30 21,9 C 24,4 C 24,4 C 81 % 0 lf 995,0 hPa 0,0 l/m 2 min 0 min 716 W/m 29,3 km/h (5 Bft) 97,87 %
28.06.2017 17:32 22,1 C 23,9 C 23,9 C 80 % 0 lf 995,0 hPa 0,0 l/m 2 min 0 min 748 W/m 33,5 km/h (5 Bft) 95,65 %
28.06.2017 17:34 22,1 C 24,4 C 23,9 C 80 % 0 lf 994,9 hPa 0,0 l/m 2 min 0 min 619 W/m 25,1 km/h (4 Bft) 95,74 %
28.06.2017 17:36 22,2 C 23,9 C 23,3 C 79 % 0 lf 995,0 hPa 0,0 l/m 2 min 0 min 615 W/m 27,2 km/h (4 Bft) 93,62 %
28.06.2017 17:38 22,2 C 23,3 C 22,8 C 79 % 0 lf 994,9 hPa 0,0 l/m 2 min 0 min 610 W/m 27,2 km/h (4 Bft) 93,62 %
28.06.2017 17:40 22,2 C 22,8 C 22,8 C 79 % 0 lf 995,0 hPa 0,0 l/m 2 min 0 min 606 W/m 18,8 km/h (3 Bft) 91,49 %
28.06.2017 17:42 22,2 C 22,8 C 22,2 C 79 % 0 lf 995,0 hPa 0,0 l/m 2 min 0 min 601 W/m 25,1 km/h (4 Bft) 93,62 %
28.06.2017 17:44 22,2 C 22,2 C 22,2 C 78 % 0 lf 995,0 hPa 0,0 l/m 2 min 0 min 597 W/m 23,0 km/h (4 Bft) 95,65 %
28.06.2017 17:46 22,1 C 22,2 C 22,2 C 78 % 0 lf 995,0 hPa 0,0 l/m 2 min 0 min 592 W/m 18,8 km/h (3 Bft) 95,74 %
28.06.2017 17:48 22,1 C 22,2 C 22,2 C 78 % 0 lf 994,9 hPa 0,0 l/m 2 min 0 min 587 W/m 20,9 km/h (4 Bft) 91,49 %
28.06.2017 17:50 22,0 C 22,8 C 22,2 C 79 % 0 lf 994,9 hPa 0,0 l/m 2 min 0 min 583 W/m 18,8 km/h (3 Bft) 93,62 %
28.06.2017 17:52 21,9 C 22,2 C 22,2 C 79 % 0 lf 994,8 hPa 0,0 l/m 2 min 0 min 578 W/m 29,3 km/h (5 Bft) 95,74 %
28.06.2017 17:54 21,9 C 22,2 C 21,7 C 79 % 0 lf 995,0 hPa 0,0 l/m 2 min 0 min 574 W/m 20,9 km/h (4 Bft) 97,87 %
28.06.2017 17:56 21,8 C 22,2 C 21,7 C 79 % 0 lf 994,9 hPa 0,0 l/m 2 min 0 min 569 W/m 12,6 km/h (3 Bft) 97,83 %
28.06.2017 17:58 21,8 C 22,2 C 22,2 C 80 % 0 lf 994,9 hPa 0,0 l/m 2 min 0 min 564 W/m 14,6 km/h (3 Bft) 95,74 %
28.06.2017 18:00 21,8 C 22,8 C 22,2 C 80 % 0 lf 994,7 hPa 0,0 l/m 2 min 0 min 483 W/m 14,6 km/h (3 Bft) 95,74 %
28.06.2017 18:02 21,8 C 22,8 C 22,2 C 80 % 0 lf 994,8 hPa 0,0 l/m 0 min 0 min 251 W/m 10,5 km/h (2 Bft) 95,74 %
28.06.2017 18:04 21,8 C 22,8 C 22,2 C 81 % 0 lf 994,9 hPa 0,0 l/m 2 min 0 min 338 W/m 14,6 km/h (3 Bft) 95,74 %
28.06.2017 18:06 21,8 C 22,8 C 22,8 C 81 % 0 lf 994,9 hPa 0,0 l/m 2 min 0 min 389 W/m 14,6 km/h (3 Bft) 97,83 %
28.06.2017 18:08 21,8 C 22,8 C 22,8 C 80 % 0 lf 994,9 hPa 0,0 l/m 2 min 0 min 391 W/m 14,6 km/h (3 Bft) 97,22 %
28.06.2017 18:10 21,8 C 22,8 C 22,8 C 80 % 0 lf 994,9 hPa 0,0 l/m 2 min 0 min 403 W/m 16,7 km/h (3 Bft) 100,00 %
28.06.2017 18:12 21,8 C 22,8 C 22,8 C 80 % 0 lf 994,9 hPa 0,0 l/m 0 min 0 min 242 W/m 14,6 km/h (3 Bft) 97,87 %
28.06.2017 18:14 21,8 C 22,8 C 22,8 C 79 % 0 lf 994,9 hPa 0,0 l/m 2 min 0 min 253 W/m 20,9 km/h (4 Bft) 97,87 %
28.06.2017 18:16 21,7 C 22,2 C 22,2 C 79 % 0 lf 994,8 hPa 0,0 l/m 0 min 0 min 197 W/m 20,9 km/h (4 Bft) 95,74 %
28.06.2017 18:18 21,8 C 22,2 C 22,2 C 79 % 0 lf 994,9 hPa 0,0 l/m 0 min 0 min 180 W/m 18,8 km/h (3 Bft) 95,74 %
28.06.2017 18:20 21,7 C 22,2 C 22,2 C 79 % 0 lf 994,8 hPa 0,0 l/m 0 min 0 min 171 W/m 20,9 km/h (4 Bft) 95,74 %
28.06.2017 18:22 21,7 C 22,2 C 21,7 C 79 % 0 lf 994,8 hPa 0,0 l/m 0 min 0 min 151 W/m 14,6 km/h (3 Bft) 100,00 %
28.06.2017 18:24 21,7 C 22,2 C 21,7 C 79 % 0 lf 994,9 hPa 0,0 l/m 0 min 0 min 146 W/m 23,0 km/h (4 Bft) 95,74 %
28.06.2017 18:26 21,7 C 22,2 C 21,7 C 79 % 0 lf 994,8 hPa 0,0 l/m 0 min 0 min 147 W/m 18,8 km/h (3 Bft) 100,00 %
28.06.2017 18:28 21,7 C 22,2 C 21,7 C 79 % 0 lf 994,8 hPa 0,0 l/m 0 min 0 min 162 W/m 16,7 km/h (3 Bft) 100,00 %
28.06.2017 18:31 21,7 C 22,2 C 22,2 C 79 % 0 lf 994,8 hPa 0,0 l/m 0 min 0 min 170 W/m 16,7 km/h (3 Bft) 98,78 %
28.06.2017 18:32 21,7 C 22,8 C 22,2 C 79 % 0 lf 994,8 hPa 0,0 l/m 0 min 0 min 173 W/m 6,3 km/h (2 Bft) 100,00 %
28.06.2017 18:34 21,7 C 22,8 C 22,2 C 79 % 0 lf 994,7 hPa 0,0 l/m 0 min 0 min 191 W/m 10,5 km/h (2 Bft) 97,83 %
28.06.2017 18:35 21,7 C 22,8 C 22,2 C 79 % 0 lf 994,7 hPa 0,0 l/m 0 min 0 min 191 W/m 14,6 km/h (3 Bft) 100,00 %
28.06.2017 18:38 21,7 C 22,8 C 22,2 C 79 % 0 lf 994,8 hPa 0,0 l/m 0 min 0 min 200 W/m 23,0 km/h (4 Bft) 96,61 %
28.06.2017 18:40 21,7 C 22,2 C 21,7 C 78 % 0 lf 994,7 hPa 0,0 l/m 2 min 0 min 313 W/m 16,7 km/h (3 Bft) 93,62 %
28.06.2017 18:42 21,7 C 22,2 C 21,7 C 78 % 0 lf 994,7 hPa 0,0 l/m 2 min 0 min 448 W/m 25,1 km/h (4 Bft) 97,83 %
28.06.2017 18:44 21,7 C 22,8 C 21,7 C 77 % 0 lf 994,7 hPa 0,0 l/m 2 min 0 min 363 W/m 12,6 km/h (3 Bft) 100,00 %
28.06.2017 18:46 21,7 C 22,8 C 21,7 C 77 % 0 lf 994,6 hPa 0,0 l/m 2 min 0 min 354 W/m 16,7 km/h (3 Bft) 93,62 %
28.06.2017 18:48 21,7 C 22,8 C 21,7 C 77 % 0 lf 994,7 hPa 0,0 l/m 2 min 0 min 388 W/m 14,6 km/h (3 Bft) 97,87 %
28.06.2017 18:50 21,7 C 22,2 C 21,7 C 77 % 0 lf 994,7 hPa 0,0 l/m 0 min 0 min 153 W/m 14,6 km/h (3 Bft) 95,74 %
28.06.2017 18:52 21,7 C 22,2 C 21,7 C 77 % 0 lf 994,8 hPa 0,0 l/m 0 min 0 min 132 W/m 14,6 km/h (3 Bft) 93,62 %
28.06.2017 18:54 21,7 C 22,2 C 21,7 C 77 % 0 lf 994,8 hPa 0,0 l/m 0 min 0 min 123 W/m 8,4 km/h (2 Bft) 97,83 %
28.06.2017 18:56 21,7 C 22,2 C 21,1 C 77 % 0 lf 994,7 hPa 0,0 l/m 0 min 0 min 123 W/m 14,6 km/h (3 Bft) 97,87 %
28.06.2017 18:58 21,7 C 22,2 C 21,1 C 77 % 0 lf 994,7 hPa 0,0 l/m 0 min 0 min 107 W/m 14,6 km/h (3 Bft) 97,87 %
28.06.2017 19:00 21,7 C 22,2 C 21,1 C 76 % 0 lf 994,7 hPa 0,0 l/m 0 min 0 min 166 W/m 16,7 km/h (3 Bft) 97,87 %
28.06.2017 19:02 21,7 C 22,2 C 21,1 C 76 % 0 lf 994,7 hPa 0,0 l/m 2 min 0 min 330 W/m 18,8 km/h (3 Bft) 97,87 %
28.06.2017 19:04 21,7 C 22,2 C 20,6 C 75 % 0 lf 994,7 hPa 0,0 l/m 2 min 0 min 353 W/m 23,0 km/h (4 Bft) 95,74 %
28.06.2017 19:06 21,7 C 22,2 C 20,6 C 75 % 0 lf 994,6 hPa 0,0 l/m 2 min 0 min 337 W/m 12,6 km/h (3 Bft) 97,56 %
28.06.2017 19:08 21,7 C 22,2 C 20,6 C 75 % 0 lf 994,6 hPa 0,0 l/m 2 min 0 min 334 W/m 16,7 km/h (3 Bft) 100,00 %
28.06.2017 19:10 21,7 C 22,2 C 20,6 C 75 % 0 lf 994,6 hPa 0,0 l/m 2 min 0 min 327 W/m 14,6 km/h (3 Bft) 100,00 %
28.06.2017 19:12 21,7 C 22,2 C 20,6 C 75 % 0 lf 994,7 hPa 0,0 l/m 2 min 0 min 324 W/m 12,6 km/h (3 Bft) 97,87 %
28.06.2017 19:14 21,7 C 22,2 C 20,6 C 75 % 0 lf 994,8 hPa 0,0 l/m 2 min 0 min 329 W/m 10,5 km/h (2 Bft) 97,87 %
28.06.2017 19:16 21,7 C 22,2 C 20,6 C 75 % 0 lf 994,7 hPa 0,0 l/m 2 min 0 min 332 W/m 14,6 km/h (3 Bft) 100,00 %
28.06.2017 19:18 21,7 C 22,2 C 20,6 C 74 % 0 lf 994,7 hPa 0,0 l/m 2 min 0 min 322 W/m 16,7 km/h (3 Bft) 100,00 %
28.06.2017 19:20 21,7 C 22,2 C 20,6 C 75 % 0 lf 994,6 hPa 0,0 l/m 2 min 0 min 320 W/m 8,4 km/h (2 Bft) 100,00 %
28.06.2017 19:22 21,7 C 22,2 C 20,6 C 75 % 0 lf 994,6 hPa 0,0 l/m 2 min 0 min 327 W/m 8,4 km/h (2 Bft) 100,00 %
28.06.2017 19:24 21,7 C 22,2 C 21,1 C 75 % 0 lf 994,7 hPa 0,0 l/m 2 min 0 min 329 W/m 12,6 km/h (3 Bft) 100,00 %
28.06.2017 19:26 21,7 C 22,2 C 21,1 C 75 % 0 lf 994,7 hPa 0,0 l/m 2 min 0 min 307 W/m 10,5 km/h (2 Bft) 97,87 %
28.06.2017 19:28 21,7 C 22,2 C 21,1 C 75 % 0 lf 994,7 hPa 0,0 l/m 2 min 0 min 281 W/m 10,5 km/h (2 Bft) 100,00 %
28.06.2017 19:30 21,7 C 22,2 C 21,1 C 75 % 0 lf 994,8 hPa 0,0 l/m 2 min 0 min 272 W/m 14,6 km/h (3 Bft) 100,00 %
28.06.2017 19:32 21,7 C 22,2 C 20,6 C 75 % 0 lf 994,8 hPa 0,0 l/m 2 min 0 min 261 W/m 10,5 km/h (2 Bft) 97,92 %
28.06.2017 19:34 21,8 C 22,2 C 20,6 C 75 % 0 lf 994,8 hPa 0,0 l/m 2 min 0 min 250 W/m 14,6 km/h (3 Bft) 97,87 %
28.06.2017 19:36 21,8 C 22,2 C 20,6 C 74 % 0 lf 994,8 hPa 0,0 l/m 2 min 0 min 251 W/m 14,6 km/h (3 Bft) 100,00 %
28.06.2017 19:38 21,8 C 22,2 C 20,6 C 74 % 0 lf 994,9 hPa 0,0 l/m 2 min 0 min 247 W/m 10,5 km/h (2 Bft) 100,00 %
28.06.2017 19:40 21,8 C 22,2 C 20,6 C 74 % 0 lf 994,9 hPa 0,0 l/m 2 min 0 min 233 W/m 12,6 km/h (3 Bft) 100,00 %
28.06.2017 19:42 21,8 C 22,2 C 20,6 C 73 % 0 lf 994,9 hPa 0,0 l/m 2 min 0 min 230 W/m 16,7 km/h (3 Bft) 100,00 %
28.06.2017 19:44 21,7 C 21,7 C 20,6 C 73 % 0 lf 994,9 hPa 0,0 l/m 2 min 0 min 232 W/m 18,8 km/h (3 Bft) 97,87 %
28.06.2017 19:46 21,7 C 21,7 C 20,0 C 73 % 0 lf 994,9 hPa 0,0 l/m 2 min 0 min 224 W/m 12,6 km/h (3 Bft) 97,87 %
28.06.2017 19:48 21,7 C 21,7 C 20,0 C 73 % 0 lf 994,9 hPa 0,0 l/m 2 min 0 min 211 W/m 14,6 km/h (3 Bft) 100,00 %
28.06.2017 19:50 21,7 C 21,7 C 20,0 C 73 % 0 lf 994,9 hPa 0,0 l/m 2 min 0 min 205 W/m 18,8 km/h (3 Bft) 97,83 %
28.06.2017 19:52 21,7 C 21,7 C 20,0 C 73 % 0 lf 994,9 hPa 0,0 l/m 2 min 0 min 200 W/m 12,6 km/h (3 Bft) 95,74 %
28.06.2017 19:54 21,7 C 21,7 C 20,0 C 73 % 0 lf 994,8 hPa 0,0 l/m 2 min 0 min 193 W/m 12,6 km/h (3 Bft) 97,87 %
28.06.2017 19:56 21,7 C 21,7 C 20,0 C 73 % 0 lf 994,7 hPa 0,0 l/m 2 min 0 min 188 W/m 12,6 km/h (3 Bft) 97,87 %
28.06.2017 19:58 21,7 C 21,7 C 20,0 C 74 % 0 lf 994,7 hPa 0,0 l/m 2 min 0 min 183 W/m 12,6 km/h (3 Bft) 97,87 %
28.06.2017 20:00 21,7 C 21,7 C 20,0 C 73 % 0 lf 994,7 hPa 0,0 l/m 2 min 0 min 178 W/m 14,6 km/h (3 Bft) 100,00 %
28.06.2017 20:02 21,7 C 21,7 C 20,0 C 74 % 0 lf 994,6 hPa 0,0 l/m 2 min 0 min 172 W/m 10,5 km/h (2 Bft) 100,00 %
28.06.2017 20:04 21,7 C 21,7 C 20,0 C 74 % 0 lf 994,6 hPa 0,0 l/m 2 min 0 min 167 W/m 12,6 km/h (3 Bft) 97,87 %
28.06.2017 20:06 21,7 C 21,7 C 20,0 C 74 % 0 lf 994,6 hPa 0,0 l/m 2 min 0 min 161 W/m 10,5 km/h (2 Bft) 95,74 %
28.06.2017 20:08 21,6 C 21,7 C 19,4 C 74 % 0 lf 994,5 hPa 0,0 l/m 2 min 0 min 154 W/m 10,5 km/h (2 Bft) 97,87 %
28.06.2017 20:10 21,6 C 21,7 C 19,4 C 74 % 0 lf 994,5 hPa 0,0 l/m 2 min 0 min 149 W/m 8,4 km/h (2 Bft) 97,87 %
28.06.2017 20:12 21,6 C 21,7 C 19,4 C 74 % 0 lf 994,5 hPa 0,0 l/m 2 min 0 min 144 W/m 10,5 km/h (2 Bft) 97,87 %
28.06.2017 20:14 21,6 C 21,7 C 19,4 C 74 % 0 lf 994,6 hPa 0,0 l/m 2 min 0 min 138 W/m 8,4 km/h (2 Bft) 95,74 %
28.06.2017 20:16 21,6 C 21,7 C 19,4 C 74 % 0 lf 994,6 hPa 0,0 l/m 2 min 0 min 133 W/m 8,4 km/h (2 Bft) 93,48 %
28.06.2017 20:18 21,6 C 21,7 C 19,4 C 74 % 0 lf 994,6 hPa 0,0 l/m 2 min 0 min 128 W/m 8,4 km/h (2 Bft) 89,36 %
28.06.2017 20:20 21,6 C 21,1 C 19,4 C 75 % 0 lf 994,6 hPa 0,0 l/m 2 min 0 min 124 W/m 6,3 km/h (2 Bft) 93,62 %
28.06.2017 20:22 21,6 C 21,1 C 19,4 C 75 % 0 lf 994,6 hPa 0,0 l/m 2 min 0 min 117 W/m 8,4 km/h (2 Bft) 93,62 %
28.06.2017 20:24 21,6 C 21,1 C 19,4 C 75 % 0 lf 994,5 hPa 0,0 l/m 2 min 0 min 112 W/m 10,5 km/h (2 Bft) 91,49 %
28.06.2017 20:26 21,6 C 21,1 C 19,4 C 75 % 0 lf 994,5 hPa 0,0 l/m 2 min 0 min 107 W/m 8,4 km/h (2 Bft) 91,49 %
28.06.2017 20:28 21,6 C 21,1 C 19,4 C 75 % 0 lf 994,5 hPa 0,0 l/m 2 min 0 min 106 W/m 6,3 km/h (2 Bft) 93,48 %
28.06.2017 20:30 21,6 C 21,1 C 19,4 C 76 % 0 lf 994,6 hPa 0,0 l/m 2 min 0 min 99 W/m 8,4 km/h (2 Bft) 93,62 %
28.06.2017 20:32 21,6 C 21,1 C 19,4 C 76 % 0 lf 994,6 hPa 0,0 l/m 2 min 0 min 95 W/m 10,5 km/h (2 Bft) 93,62 %
28.06.2017 20:34 21,6 C 21,1 C 19,4 C 75 % 0 lf 994,6 hPa 0,0 l/m 2 min 0 min 92 W/m 8,4 km/h (2 Bft) 89,36 %
28.06.2017 20:36 21,5 C 21,1 C 19,4 C 75 % 0 lf 994,6 hPa 0,0 l/m 2 min 0 min 89 W/m 8,4 km/h (2 Bft) 89,36 %
28.06.2017 20:38 21,5 C 21,1 C 19,4 C 75 % 0 lf 994,6 hPa 0,0 l/m 2 min 0 min 85 W/m 6,3 km/h (2 Bft) 91,49 %
28.06.2017 20:40 21,5 C 21,1 C 19,4 C 76 % 0 lf 994,6 hPa 0,0 l/m 2 min 0 min 82 W/m 8,4 km/h (2 Bft) 91,30 %
28.06.2017 20:42 21,4 C 21,1 C 19,4 C 76 % 0 lf 994,6 hPa 0,0 l/m 2 min 0 min 79 W/m 12,6 km/h (3 Bft) 88,89 %
28.06.2017 20:44 21,4 C 21,1 C 18,9 C 76 % 0 lf 994,6 hPa 0,0 l/m 2 min 0 min 74 W/m 8,4 km/h (2 Bft) 91,30 %
28.06.2017 20:46 21,4 C 21,1 C 18,9 C 76 % 0 lf 994,6 hPa 0,0 l/m 2 min 0 min 71 W/m 8,4 km/h (2 Bft) 93,62 %
28.06.2017 20:48 21,4 C 21,1 C 18,9 C 76 % 0 lf 994,6 hPa 0,0 l/m 2 min 0 min 66 W/m 6,3 km/h (2 Bft) 91,49 %
28.06.2017 20:50 21,4 C 21,1 C 18,9 C 76 % 0 lf 994,5 hPa 0,0 l/m 2 min 0 min 62 W/m 6,3 km/h (2 Bft) 91,49 %
28.06.2017 20:52 21,3 C 20,6 C 18,9 C 76 % 0 lf 994,5 hPa 0,0 l/m 0 min 0 min 58 W/m 6,3 km/h (2 Bft) 91,38 %
28.06.2017 20:54 21,3 C 20,6 C 18,9 C 76 % 0 lf 994,5 hPa 0,0 l/m 0 min 0 min 54 W/m 8,4 km/h (2 Bft) 93,62 %
28.06.2017 20:56 21,3 C 20,6 C 18,9 C 76 % 0 lf 994,5 hPa 0,0 l/m 0 min 0 min 49 W/m 4,2 km/h (1 Bft) 91,49 %
28.06.2017 20:58 21,3 C 20,6 C 18,9 C 76 % 0 lf 994,5 hPa 0,0 l/m 0 min 0 min 47 W/m 2,1 km/h (1 Bft) 91,49 %
28.06.2017 21:00 21,3 C 20,6 C 18,3 C 76 % 0 lf 994,5 hPa 0,0 l/m 0 min 0 min 43 W/m 2,1 km/h (1 Bft) 91,49 %
28.06.2017 21:02 21,2 C 20,6 C 18,3 C 76 % 0 lf 994,5 hPa 0,0 l/m 0 min 0 min 41 W/m 4,2 km/h (1 Bft) 85,71 %
28.06.2017 21:04 21,2 C 20,6 C 18,3 C 76 % 0 lf 994,5 hPa 0,0 l/m 0 min 0 min 39 W/m 2,1 km/h (1 Bft) 93,62 %
28.06.2017 21:06 21,2 C 20,6 C 18,3 C 76 % 0 lf 994,5 hPa 0,0 l/m 0 min 0 min 37 W/m 2,1 km/h (1 Bft) 92,59 %
28.06.2017 21:08 21,2 C 20,6 C 17,8 C 76 % 0 lf 994,4 hPa 0,0 l/m 0 min 0 min 34 W/m 4,2 km/h (1 Bft) 100,00 %
28.06.2017 21:10 21,2 C 20,6 C 17,8 C 77 % 0 lf 994,4 hPa 0,0 l/m 0 min 0 min 32 W/m 2,1 km/h (1 Bft) 100,00 %
28.06.2017 21:12 21,2 C 20,0 C 17,8 C 77 % 0 lf 994,4 hPa 0,0 l/m 0 min 0 min 30 W/m 2,1 km/h (1 Bft) 100,00 %
28.06.2017 21:14 21,2 C 20,0 C 17,8 C 77 % 0 lf 994,3 hPa 0,0 l/m 0 min 0 min 28 W/m 2,1 km/h (1 Bft) 100,00 %
28.06.2017 21:16 21,1 C 20,0 C 17,2 C 77 % 0 lf 994,3 hPa 0,0 l/m 0 min 0 min 26 W/m 0,0 km/h (0 Bft) 97,87 %
28.06.2017 21:18 21,1 C 20,0 C 17,2 C 77 % 0 lf 994,3 hPa 0,0 l/m 0 min 0 min 25 W/m 2,1 km/h (1 Bft) 100,00 %
28.06.2017 21:20 21,1 C 19,4 C 17,2 C 76 % 0 lf 994,3 hPa 0,0 l/m 0 min 0 min 23 W/m 0,0 km/h (0 Bft) 100,00 %
28.06.2017 21:22 21,0 C 19,4 C 17,2 C 76 % 0 lf 994,3 hPa 0,0 l/m 0 min 0 min 21 W/m 0,0 km/h (0 Bft) 100,00 %
28.06.2017 21:24 21,0 C 19,4 C 17,2 C 76 % 0 lf 994,3 hPa 0,0 l/m 0 min 0 min 21 W/m 0,0 km/h (0 Bft) 95,74 %
28.06.2017 21:26 21,0 C 19,4 C 17,2 C 76 % 0 lf 994,3 hPa 0,0 l/m 0 min 0 min 19 W/m 0,0 km/h (0 Bft) 100,00 %
28.06.2017 21:28 20,9 C 19,4 C 16,7 C 77 % 0 lf 994,3 hPa 0,0 l/m 0 min 0 min 18 W/m 0,0 km/h (0 Bft) 100,00 %
28.06.2017 21:30 20,9 C 18,9 C 16,7 C 77 % 0 lf 994,2 hPa 0,0 l/m 0 min 0 min 17 W/m 0,0 km/h (0 Bft) 100,00 %
28.06.2017 21:32 20,9 C 18,9 C 16,7 C 77 % 0 lf 994,2 hPa 0,0 l/m 0 min 0 min 15 W/m 0,0 km/h (0 Bft) 100,00 %
28.06.2017 21:34 20,8 C 18,9 C 16,7 C 77 % 0 lf 994,2 hPa 0,0 l/m 0 min 0 min 14 W/m 0,0 km/h (0 Bft) 100,00 %
28.06.2017 21:36 20,8 C 18,9 C 16,7 C 77 % 0 lf 994,2 hPa 0,0 l/m 0 min 0 min 12 W/m 0,0 km/h (0 Bft) 100,00 %
28.06.2017 21:38 20,8 C 18,9 C 16,7 C 77 % 0 lf 994,3 hPa 0,0 l/m 0 min 0 min 11 W/m 0,0 km/h (0 Bft) 100,00 %
28.06.2017 21:40 20,7 C 18,9 C 16,1 C 78 % 0 lf 994,3 hPa 0,0 l/m 0 min 0 min 11 W/m 0,0 km/h (0 Bft) 100,00 %
28.06.2017 21:42 20,7 C 18,3 C 16,1 C 78 % 0 lf 994,3 hPa 0,0 l/m 0 min 0 min 9 W/m 0,0 km/h (0 Bft) 100,00 %
28.06.2017 21:44 20,6 C 18,3 C 16,1 C 78 % 0 lf 994,3 hPa 0,0 l/m 0 min 0 min 9 W/m 0,0 km/h (0 Bft) 97,87 %
28.06.2017 21:46 20,6 C 18,3 C 16,1 C 78 % 0 lf 994,3 hPa 0,0 l/m 0 min 0 min 7 W/m 0,0 km/h (0 Bft) 100,00 %
28.06.2017 21:48 20,6 C 18,3 C 16,1 C 79 % 0 lf 994,4 hPa 0,0 l/m 0 min 0 min 7 W/m 0,0 km/h (0 Bft) 100,00 %
28.06.2017 21:50 20,5 C 18,3 C 16,1 C 79 % 0 lf 994,3 hPa 0,0 l/m 0 min 0 min 7 W/m 0,0 km/h (0 Bft) 100,00 %
28.06.2017 21:52 20,4 C 18,3 C 16,1 C 79 % 0 lf 994,3 hPa 0,0 l/m 0 min 0 min 6 W/m 0,0 km/h (0 Bft) 100,00 %
28.06.2017 21:54 20,4 C 17,8 C 15,6 C 79 % 0 lf 994,3 hPa 0,0 l/m 0 min 0 min 5 W/m 0,0 km/h (0 Bft) 97,87 %
28.06.2017 21:56 20,3 C 17,8 C 15,6 C 79 % 0 lf 994,3 hPa 0,0 l/m 0 min 0 min 5 W/m 0,0 km/h (0 Bft) 100,00 %
28.06.2017 21:58 20,3 C 17,8 C 15,6 C 80 % 1 lf 994,3 hPa 0,0 l/m 0 min 0 min 5 W/m 0,0 km/h (0 Bft) 97,87 %
28.06.2017 22:00 20,2 C 17,8 C 15,6 C 80 % 1 lf 994,4 hPa 0,0 l/m 0 min 0 min 5 W/m 0,0 km/h (0 Bft) 100,00 %
28.06.2017 22:02 20,2 C 17,8 C 15,6 C 80 % 1 lf 994,3 hPa 0,0 l/m 0 min 0 min 1 W/m 0,0 km/h (0 Bft) 100,00 %
28.06.2017 22:04 20,1 C 17,8 C 15,6 C 80 % 1 lf 994,3 hPa 0,0 l/m 0 min 0 min 0 W/m 0,0 km/h (0 Bft) 100,00 %
28.06.2017 22:06 20,1 C 17,8 C 15,6 C 80 % 1 lf 994,4 hPa 0,0 l/m 0 min 0 min 0 W/m 0,0 km/h (0 Bft) 100,00 %
28.06.2017 22:08 20,0 C 17,8 C 15,6 C 80 % 1 lf 994,4 hPa 0,0 l/m 0 min 0 min 0 W/m 0,0 km/h (0 Bft) 100,00 %
28.06.2017 22:10 19,9 C 17,8 C 15,6 C 81 % 1 lf 994,4 hPa 0,0 l/m 0 min 0 min 0 W/m 4,2 km/h (1 Bft) 100,00 %
28.06.2017 22:12 19,9 C 17,8 C 15,6 C 81 % 1 lf 994,4 hPa 0,0 l/m 0 min 0 min 0 W/m 4,2 km/h (1 Bft) 100,00 %
28.06.2017 22:14 19,9 C 17,8 C 15,6 C 81 % 1 lf 994,4 hPa 0,0 l/m 0 min 0 min 0 W/m 2,1 km/h (1 Bft) 100,00 %
28.06.2017 22:16 19,8 C 17,8 C 15,0 C 81 % 1 lf 994,4 hPa 0,0 l/m 0 min 0 min 0 W/m 4,2 km/h (1 Bft) 97,83 %
28.06.2017 22:18 19,8 C 17,8 C 15,0 C 81 % 1 lf 994,3 hPa 0,0 l/m 0 min 0 min 0 W/m 2,1 km/h (1 Bft) 100,00 %
28.06.2017 22:20 19,7 C 17,8 C 15,0 C 82 % 1 lf 994,5 hPa 0,0 l/m 0 min 0 min 0 W/m 0,0 km/h (0 Bft) 98,31 %
28.06.2017 22:22 19,6 C 17,8 C 15,0 C 82 % 1 lf 994,5 hPa 0,0 l/m 0 min 0 min 0 W/m 0,0 km/h (0 Bft) 94,29 %
28.06.2017 22:24 19,6 C 17,8 C 15,0 C 82 % 1 lf 994,5 hPa 0,0 l/m 0 min 0 min 0 W/m 0,0 km/h (0 Bft) 95,74 %
28.06.2017 22:26 19,5 C 17,8 C 15,0 C 82 % 1 lf 994,5 hPa 0,0 l/m 0 min 0 min 0 W/m 0,0 km/h (0 Bft) 100,00 %
28.06.2017 22:28 19,4 C 17,8 C 15,0 C 82 % 1 lf 994,5 hPa 0,0 l/m 0 min 0 min 0 W/m 0,0 km/h (0 Bft) 100,00 %
28.06.2017 22:30 19,4 C 17,2 C 15,0 C 82 % 1 lf 994,5 hPa 0,0 l/m 0 min 0 min 0 W/m 0,0 km/h (0 Bft) 100,00 %
28.06.2017 22:32 19,3 C 17,2 C 15,0 C 82 % 1 lf 994,6 hPa 0,0 l/m 0 min 0 min 2 W/m 0,0 km/h (0 Bft) 97,87 %
28.06.2017 22:34 19,3 C 17,2 C 15,0 C 82 % 1 lf 994,5 hPa 0,0 l/m 0 min 0 min 5 W/m 0,0 km/h (0 Bft) 97,87 %
28.06.2017 22:36 19,2 C 17,2 C 15,0 C 83 % 1 lf 994,5 hPa 0,0 l/m 0 min 0 min 5 W/m 0,0 km/h (0 Bft) 95,74 %
28.06.2017 22:38 19,2 C 17,2 C 15,0 C 83 % 1 lf 994,5 hPa 0,0 l/m 0 min 0 min 5 W/m 0,0 km/h (0 Bft) 95,74 %
28.06.2017 22:40 19,1 C 17,2 C 15,0 C 83 % 1 lf 994,5 hPa 0,0 l/m 0 min 0 min 0 W/m 0,0 km/h (0 Bft) 100,00 %
28.06.2017 22:42 19,1 C 17,2 C 15,0 C 83 % 1 lf 994,5 hPa 0,0 l/m 0 min 0 min 1 W/m 0,0 km/h (0 Bft) 97,87 %
28.06.2017 22:44 19,0 C 17,2 C 15,0 C 83 % 1 lf 994,6 hPa 0,0 l/m 0 min 0 min 3 W/m 0,0 km/h (0 Bft) 97,87 %
28.06.2017 22:46 18,9 C 17,2 C 15,0 C 83 % 1 lf 994,5 hPa 0,0 l/m 0 min 0 min 5 W/m 0,0 km/h (0 Bft) 95,74 %
28.06.2017 22:48 18,9 C 17,2 C 15,0 C 83 % 1 lf 994,5 hPa 0,0 l/m 0 min 0 min 0 W/m 0,0 km/h (0 Bft) 95,74 %
28.06.2017 22:50 18,8 C 17,2 C 15,0 C 83 % 1 lf 994,4 hPa 0,0 l/m 0 min 0 min 5 W/m 0,0 km/h (0 Bft) 95,74 %
28.06.2017 22:52 18,8 C 17,2 C 15,0 C 84 % 1 lf 994,4 hPa 0,0 l/m 0 min 0 min 0 W/m 0,0 km/h (0 Bft) 95,65 %
28.06.2017 22:54 18,8 C 17,2 C 15,0 C 84 % 1 lf 994,4 hPa 0,0 l/m 0 min 0 min 0 W/m 0,0 km/h (0 Bft) 97,87 %
28.06.2017 22:56 18,7 C 17,2 C 15,0 C 84 % 1 lf 994,4 hPa 0,0 l/m 0 min 0 min 5 W/m 0,0 km/h (0 Bft) 97,87 %
28.06.2017 22:58 18,7 C 17,2 C 15,0 C 85 % 1 lf 994,4 hPa 0,0 l/m 0 min 0 min 0 W/m 2,1 km/h (1 Bft) 95,74 %
28.06.2017 23:00 18,6 C 17,2 C 15,0 C 85 % 1 lf 994,4 hPa 0,0 l/m 0 min 0 min 0 W/m 2,1 km/h (1 Bft) 97,87 %
28.06.2017 23:02 18,6 C 17,2 C 15,0 C 85 % 1 lf 994,4 hPa 0,0 l/m 0 min 0 min 0 W/m 0,0 km/h (0 Bft) 94,34 %
28.06.2017 23:04 18,5 C 17,2 C 15,0 C 85 % 1 lf 994,4 hPa 0,0 l/m 0 min 0 min 0 W/m 0,0 km/h (0 Bft) 97,87 %
28.06.2017 23:06 18,5 C 17,2 C 15,0 C 85 % 1 lf 994,5 hPa 0,0 l/m 0 min 0 min 0 W/m 6,3 km/h (2 Bft) 98,00 %
28.06.2017 23:08 18,4 C 17,2 C 15,0 C 85 % 1 lf 994,4 hPa 0,0 l/m 0 min 0 min 0 W/m 4,2 km/h (1 Bft) 93,62 %
28.06.2017 23:10 18,4 C 17,2 C 15,0 C 86 % 1 lf 994,4 hPa 0,0 l/m 0 min 0 min 0 W/m 4,2 km/h (1 Bft) 95,65 %
28.06.2017 23:12 18,3 C 17,2 C 15,0 C 86 % 1 lf 994,4 hPa 0,0 l/m 0 min 0 min 0 W/m 4,2 km/h (1 Bft) 89,58 %
28.06.2017 23:14 18,3 C 17,2 C 15,0 C 86 % 1 lf 994,4 hPa 0,0 l/m 0 min 0 min 0 W/m 4,2 km/h (1 Bft) 95,74 %
28.06.2017 23:16 18,3 C 17,2 C 15,0 C 86 % 1 lf 994,5 hPa 0,0 l/m 0 min 0 min 0 W/m 4,2 km/h (1 Bft) 95,74 %
28.06.2017 23:18 18,2 C 17,2 C 15,0 C 86 % 1 lf 994,5 hPa 0,0 l/m 0 min 0 min 0 W/m 2,1 km/h (1 Bft) 93,62 %
28.06.2017 23:20 18,2 C 17,2 C 15,0 C 86 % 1 lf 994,6 hPa 0,0 l/m 0 min 0 min 0 W/m 2,1 km/h (1 Bft) 93,62 %
28.06.2017 23:22 18,2 C 17,2 C 15,0 C 87 % 1 lf 994,6 hPa 0,0 l/m 0 min 0 min 0 W/m 2,1 km/h (1 Bft) 93,62 %
28.06.2017 23:24 18,1 C 17,2 C 15,6 C 87 % 1 lf 994,5 hPa 0,0 l/m 0 min 0 min 0 W/m 2,1 km/h (1 Bft) 95,74 %
28.06.2017 23:26 18,1 C 17,2 C 15,6 C 87 % 1 lf 994,5 hPa 0,0 l/m 0 min 0 min 0 W/m 2,1 km/h (1 Bft) 93,62 %
28.06.2017 23:28 18,1 C 17,2 C 15,6 C 87 % 1 lf 994,5 hPa 0,0 l/m 0 min 0 min 0 W/m 2,1 km/h (1 Bft) 91,49 %
28.06.2017 23:30 18,1 C 17,2 C 15,6 C 87 % 1 lf 994,5 hPa 0,0 l/m 0 min 0 min 0 W/m 4,2 km/h (1 Bft) 95,74 %
28.06.2017 23:32 18,0 C 17,2 C 15,6 C 87 % 1 lf 994,5 hPa 0,0 l/m 0 min 0 min 0 W/m 2,1 km/h (1 Bft) 93,62 %
28.06.2017 23:34 18,0 C 17,2 C 15,6 C 87 % 1 lf 994,5 hPa 0,0 l/m 0 min 0 min 0 W/m 6,3 km/h (2 Bft) 95,74 %
28.06.2017 23:36 17,9 C 17,2 C 15,6 C 87 % 1 lf 994,4 hPa 0,0 l/m 0 min 0 min 0 W/m 4,2 km/h (1 Bft) 94,29 %
28.06.2017 23:38 17,9 C 17,2 C 15,6 C 87 % 1 lf 994,4 hPa 0,0 l/m 0 min 0 min 0 W/m 6,3 km/h (2 Bft) 95,65 %
28.06.2017 23:40 17,9 C 17,2 C 15,6 C 88 % 1 lf 994,4 hPa 0,0 l/m 0 min 0 min 0 W/m 6,3 km/h (2 Bft) 95,74 %
28.06.2017 23:42 17,9 C 17,2 C 15,6 C 88 % 1 lf 994,4 hPa 0,0 l/m 0 min 0 min 3 W/m 6,3 km/h (2 Bft) 95,74 %
28.06.2017 23:44 17,9 C 17,2 C 15,6 C 88 % 1 lf 994,3 hPa 0,0 l/m 0 min 0 min 1 W/m 4,2 km/h (1 Bft) 95,74 %
28.06.2017 23:46 17,8 C 17,2 C 15,6 C 88 % 1 lf 994,3 hPa 0,0 l/m 0 min 0 min 0 W/m 4,2 km/h (1 Bft) 93,62 %
28.06.2017 23:48 17,8 C 17,2 C 15,6 C 88 % 1 lf 994,3 hPa 0,0 l/m 0 min 0 min 0 W/m 4,2 km/h (1 Bft) 93,62 %
28.06.2017 23:50 17,8 C 17,2 C 15,0 C 88 % 1 lf 994,3 hPa 0,0 l/m 0 min 0 min 0 W/m 4,2 km/h (1 Bft) 89,13 %
28.06.2017 23:52 17,8 C 17,2 C 15,0 C 88 % 1 lf 994,3 hPa 0,0 l/m 0 min 0 min 3 W/m 4,2 km/h (1 Bft) 95,74 %
28.06.2017 23:54 17,8 C 17,2 C 15,0 C 88 % 1 lf 994,3 hPa 0,0 l/m 0 min 0 min 3 W/m 0,0 km/h (0 Bft) 93,62 %
28.06.2017 23:56 17,8 C 16,7 C 15,0 C 88 % 1 lf 994,3 hPa 0,0 l/m 0 min 0 min 0 W/m 0,0 km/h (0 Bft) 95,74 %
28.06.2017 23:58 17,8 C 16,7 C 15,0 C 88 % 1 lf 994,3 hPa 0,0 l/m 0 min 0 min 0 W/m 0,0 km/h (0 Bft) 95,74 %
_ Min-Zeit 23:58 23:56 22:16 19:42 09:08 21:30 - - - - 21:16 10:10
Minimum _ 17,7 C 16,7 C 15,0 C 73 % 0 lf 994,2 hPa - - - - 0,0 km/h (0 Bft) 84,78 %
_ Max-Zeit 12:58 12:18 16:58 09:00 07:00 00:04 06:30 08:54 05:36 17:00 17:02 00:54
Maximum _ 22,2 C 25,0 C 27,8 C 97 % 15 lf 1001,0 hPa 0,2 l/m 2 min 2 min 909 W/m 35,6 km/h
W (5 Bft)
100,00 %
Durchschnitt _ 20,0 C 20,0 C 18,9 C 88 % 2 lf 996,2 hPa #1,6 l/m #5:18 h #3:42 h 181 W/m 14,1 km/h (3 Bft) 96,54 %
© 2017 W. Hausmann